| time (UTC) | temp F | wind direction | speed MPH | gust MPH | rain 1hr in | rain 24hr in | rain mn in | humidity % | barometer mb |
| 20260903060604 | 82 | 300 | 2.0 | 7.0 | 0.00 | 0.00 | 0.00 | 74 | 1016.8 |
| 20260903060504 | 82 | 303 | 2.0 | 7.0 | 0.00 | 0.00 | 0.00 | 74 | 1016.9 |
| 20260903060404 | 81 | 301 | 2.0 | 7.0 | 0.00 | 0.00 | 0.00 | 74 | 1016.9 |
| 20260903060304 | 81 | 302 | 2.0 | 7.0 | 0.00 | 0.00 | 0.00 | 74 | 1016.9 |
| 20260903060204 | 81 | 302 | 2.0 | 7.0 | 0.00 | 0.00 | 0.00 | 74 | 1016.9 |
| 20260903060104 | 81 | 302 | 2.0 | 7.0 | 0.00 | 0.00 | 0.00 | 74 | 1016.8 |
| 20260903060004 | 81 | 303 | 2.0 | 7.0 | 0.00 | 0.00 | 0.00 | 74 | 1016.8 |
| 20260903055904 | 81 | 301 | 2.0 | 7.0 | 0.00 | 0.00 | 0.00 | 75 | 1016.9 |
| 20260903055804 | 81 | 300 | 1.0 | 5.0 | 0.00 | 0.00 | 0.00 | 75 | 1016.9 |
| 20260903055704 | 81 | 298 | 1.0 | 5.0 | 0.00 | 0.00 | 0.00 | 75 | 1016.9 |
| 20260903055604 | 81 | 300 | 2.0 | 5.0 | 0.00 | 0.00 | 0.00 | 75 | 1017.0 |
| 20260903055504 | 81 | 295 | 2.0 | 5.0 | 0.00 | 0.00 | 0.00 | 75 | 1017.0 |
| 20260903055404 | 81 | 295 | 1.0 | 5.0 | 0.00 | 0.00 | 0.00 | 75 | 1016.9 |
| 20260903055306 | 81 | 294 | 1.0 | 5.0 | 0.00 | 0.00 | 0.00 | 75 | 1016.9 |
| 20260903055203 | 81 | 294 | 1.0 | 5.0 | 0.00 | 0.00 | 0.00 | 75 | 1017.0 |
| 20260903055104 | 81 | 294 | 2.0 | 5.0 | 0.00 | 0.00 | 0.00 | 75 | 1017.0 |
| 20260903055004 | 81 | 295 | 2.0 | 5.0 | 0.00 | 0.00 | 0.00 | 75 | 1016.9 |
| 20260903054904 | 81 | 294 | 2.0 | 5.0 | 0.00 | 0.00 | 0.00 | 75 | 1016.9 |
| 20260903054804 | 81 | 296 | 2.0 | 5.0 | 0.00 | 0.00 | 0.00 | 75 | 1016.9 |
| 20260903054704 | 81 | 296 | 2.0 | 5.0 | 0.00 | 0.00 | 0.00 | 75 | 1016.9 |
| 20260903054603 | 81 | 295 | 1.0 | 5.0 | 0.00 | 0.00 | 0.00 | 75 | 1016.9 |
| 20260903054504 | 81 | 297 | 1.0 | 5.0 | 0.00 | 0.00 | 0.00 | 75 | 1016.9 |
| 20260903054404 | 81 | 297 | 1.0 | 5.0 | 0.00 | 0.00 | 0.00 | 75 | 1017.0 |
| 20260903054303 | 81 | 298 | 1.0 | 5.0 | 0.00 | 0.00 | 0.00 | 75 | 1016.9 |
| 20260903054203 | 81 | 298 | 1.0 | 5.0 | 0.00 | 0.00 | 0.00 | 75 | 1016.9 |
| 20260903054103 | 81 | 301 | 1.0 | 4.0 | 0.00 | 0.00 | 0.00 | 75 | 1016.9 |
| 20260903054003 | 81 | 303 | 1.0 | 4.0 | 0.00 | 0.00 | 0.00 | 75 | 1016.9 |
| 20260903053903 | 81 | 304 | 1.0 | 6.0 | 0.00 | 0.00 | 0.00 | 75 | 1017.0 |
| 20260903053804 | 81 | 301 | 1.0 | 6.0 | 0.00 | 0.00 | 0.00 | 76 | 1016.9 |
| 20260903053703 | 81 | 299 | 1.0 | 6.0 | 0.00 | 0.00 | 0.00 | 76 | 1016.9 |
| 20260903053603 | 81 | 298 | 1.0 | 6.0 | 0.00 | 0.00 | 0.00 | 76 | 1016.9 |
| 20260903053503 | 81 | 300 | 1.0 | 6.0 | 0.00 | 0.00 | 0.00 | 76 | 1016.9 |
| 20260903053403 | 81 | 299 | 2.0 | 6.0 | 0.00 | 0.00 | 0.00 | 76 | 1016.7 |
| 20260903053304 | 81 | 299 | 2.0 | 6.0 | 0.00 | 0.00 | 0.00 | 76 | 1016.8 |
| 20260903053203 | 81 | 298 | 2.0 | 6.0 | 0.00 | 0.00 | 0.00 | 76 | 1016.7 |
| 20260903053103 | 81 | 297 | 2.0 | 6.0 | 0.00 | 0.00 | 0.00 | 76 | 1016.8 |
| 20260903053003 | 81 | 297 | 2.0 | 6.0 | 0.00 | 0.00 | 0.00 | 76 | 1016.7 |
| 20260903052903 | 81 | 296 | 2.0 | 6.0 | 0.00 | 0.00 | 0.00 | 76 | 1016.7 |
| 20260903052803 | 80 | 296 | 1.0 | 6.0 | 0.00 | 0.00 | 0.00 | 76 | 1016.8 |
| 20260903052703 | 81 | 296 | 1.0 | 6.0 | 0.00 | 0.00 | 0.00 | 76 | 1016.8 |
| 20260903052603 | 81 | 297 | 1.0 | 6.0 | 0.00 | 0.00 | 0.00 | 76 | 1016.6 |
| 20260903052503 | 80 | 294 | 1.0 | 6.0 | 0.00 | 0.00 | 0.00 | 76 | 1016.7 |
| 20260903052403 | 81 | 295 | 1.0 | 5.0 | 0.00 | 0.00 | 0.00 | 76 | 1016.7 |
| 20260903052306 | 80 | 295 | 1.0 | 5.0 | 0.00 | 0.00 | 0.00 | 76 | 1016.7 |
| 20260903052203 | 80 | 295 | 1.0 | 5.0 | 0.00 | 0.00 | 0.00 | 76 | 1016.8 |
| 20260903052103 | 81 | 294 | 1.0 | 5.0 | 0.00 | 0.00 | 0.00 | 76 | 1016.7 |
| 20260903052003 | 80 | 293 | 1.0 | 5.0 | 0.00 | 0.00 | 0.00 | 76 | 1016.7 |
| 20260903051903 | 81 | 293 | 1.0 | 5.0 | 0.00 | 0.00 | 0.00 | 76 | 1016.7 |
| 20260903051803 | 80 | 293 | 1.0 | 5.0 | 0.00 | 0.00 | 0.00 | 76 | 1016.7 |
| 20260903051703 | 80 | 292 | 1.0 | 5.0 | 0.00 | 0.00 | 0.00 | 76 | 1016.7 |
| 20260903051603 | 80 | 292 | 1.0 | 6.0 | 0.00 | 0.00 | 0.00 | 76 | 1016.8 |
| 20260903051503 | 80 | 291 | 1.0 | 6.0 | 0.00 | 0.00 | 0.00 | 76 | 1016.7 |
| 20260903051403 | 80 | 292 | 1.0 | 6.0 | 0.00 | 0.00 | 0.00 | 76 | 1016.7 |
| 20260903051303 | 80 | 292 | 1.0 | 6.0 | 0.00 | 0.00 | 0.00 | 76 | 1016.7 |
| 20260903051203 | 80 | 292 | 1.0 | 6.0 | 0.00 | 0.00 | 0.00 | 76 | 1016.7 |
| 20260903051103 | 80 | 294 | 1.0 | 6.0 | 0.00 | 0.00 | 0.00 | 76 | 1016.6 |
| 20260903051003 | 80 | 295 | 1.0 | 6.0 | 0.00 | 0.00 | 0.00 | 76 | 1016.7 |
| 20260903050903 | 80 | 295 | 1.0 | 6.0 | 0.00 | 0.00 | 0.00 | 76 | 1016.6 |
| 20260903050803 | 80 | 296 | 1.0 | 6.0 | 0.00 | 0.00 | 0.00 | 76 | 1016.6 |
| 20260903050703 | 80 | 297 | 1.0 | 6.0 | 0.00 | 0.00 | 0.00 | 76 | 1016.6 |
| 20260903050603 | 80 | 298 | 1.0 | 6.0 | 0.00 | 0.00 | 0.00 | 76 | 1016.6 |
| 20260903050503 | 80 | 299 | 1.0 | 6.0 | 0.00 | 0.00 | 0.00 | 76 | 1016.6 |
| 20260903050403 | 80 | 299 | 1.0 | 6.0 | 0.00 | 0.00 | 0.00 | 76 | 1016.6 |
| 20260903050303 | 80 | 298 | 2.0 | 6.0 | 0.00 | 0.00 | 0.00 | 76 | 1016.7 |
| 20260903050203 | 80 | 298 | 2.0 | 6.0 | 0.00 | 0.00 | 0.00 | 76 | 1016.6 |
| 20260903050003 | 80 | 297 | 1.0 | 6.0 | 0.00 | 0.00 | 0.00 | 76 | 1016.6 |
| 20260903045903 | 80 | 298 | 2.0 | 6.0 | 0.00 | 0.00 | 0.00 | 76 | 1016.4 |
| 20260903045803 | 80 | 298 | 2.0 | 6.0 | 0.00 | 0.00 | 0.00 | 76 | 1016.4 |
| 20260903045703 | 80 | 298 | 2.0 | 6.0 | 0.00 | 0.00 | 0.00 | 76 | 1016.4 |
| 20260903045603 | 80 | 300 | 2.0 | 6.0 | 0.00 | 0.00 | 0.00 | 76 | 1016.4 |
| 20260903045503 | 80 | 300 | 2.0 | 6.0 | 0.00 | 0.00 | 0.00 | 76 | 1016.4 |
| 20260903045403 | 80 | 301 | 2.0 | 6.0 | 0.00 | 0.00 | 0.00 | 76 | 1016.4 |
| 20260903045306 | 80 | 302 | 2.0 | 6.0 | 0.00 | 0.00 | 0.00 | 76 | 1016.4 |
| 20260903045203 | 80 | 303 | 2.0 | 6.0 | 0.00 | 0.00 | 0.00 | 76 | 1016.5 |
| 20260903045103 | 80 | 302 | 2.0 | 7.0 | 0.00 | 0.00 | 0.00 | 76 | 1016.5 |
| 20260903045003 | 80 | 303 | 2.0 | 7.0 | 0.00 | 0.00 | 0.00 | 76 | 1016.4 |
| 20260903044903 | 80 | 304 | 2.0 | 7.0 | 0.00 | 0.00 | 0.00 | 76 | 1016.5 |
| 20260903044803 | 80 | 304 | 2.0 | 7.0 | 0.00 | 0.00 | 0.00 | 76 | 1016.5 |
| 20260903044703 | 80 | 303 | 2.0 | 7.0 | 0.00 | 0.00 | 0.00 | 76 | 1016.5 |
| 20260903044603 | 80 | 303 | 2.0 | 7.0 | 0.00 | 0.00 | 0.00 | 76 | 1016.7 |
| 20260903044503 | 80 | 303 | 2.0 | 7.0 | 0.00 | 0.00 | 0.00 | 76 | 1016.6 |
| 20260903044403 | 80 | 303 | 2.0 | 7.0 | 0.00 | 0.00 | 0.00 | 77 | 1016.7 |
| 20260903044303 | 80 | 302 | 2.0 | 7.0 | 0.00 | 0.00 | 0.00 | 76 | 1016.6 |
| 20260903044203 | 80 | 302 | 2.0 | 7.0 | 0.00 | 0.00 | 0.00 | 77 | 1016.6 |
| 20260903044103 | 80 | 302 | 1.0 | 6.0 | 0.00 | 0.00 | 0.00 | 76 | 1016.6 |
| 20260903044003 | 80 | 300 | 1.0 | 7.0 | 0.00 | 0.00 | 0.00 | 77 | 1016.5 |
| 20260903043903 | 80 | 299 | 2.0 | 7.0 | 0.00 | 0.00 | 0.00 | 77 | 1016.5 |
| 20260903043803 | 80 | 299 | 1.0 | 7.0 | 0.00 | 0.00 | 0.00 | 77 | 1016.5 |
| 20260903043703 | 80 | 299 | 2.0 | 7.0 | 0.00 | 0.00 | 0.00 | 77 | 1016.5 |
| 20260903043603 | 80 | 299 | 2.0 | 7.0 | 0.00 | 0.00 | 0.00 | 77 | 1016.5 |
| 20260903043503 | 80 | 299 | 2.0 | 7.0 | 0.00 | 0.00 | 0.00 | 77 | 1016.5 |
| 20260903043403 | 80 | 298 | 2.0 | 8.0 | 0.00 | 0.00 | 0.00 | 77 | 1016.5 |
| 20260903043303 | 80 | 299 | 2.0 | 9.0 | 0.00 | 0.00 | 0.00 | 77 | 1016.5 |
| 20260903043203 | 80 | 298 | 2.0 | 9.0 | 0.00 | 0.00 | 0.00 | 77 | 1016.5 |
| 20260903043103 | 80 | 298 | 2.0 | 9.0 | 0.00 | 0.00 | 0.00 | 77 | 1016.4 |
| 20260903043003 | 80 | 298 | 2.0 | 9.0 | 0.00 | 0.00 | 0.00 | 77 | 1016.4 |
| 20260903042903 | 80 | 296 | 2.0 | 9.0 | 0.00 | 0.00 | 0.00 | 76 | 1016.5 |
| 20260903042803 | 80 | 296 | 2.0 | 9.0 | 0.00 | 0.00 | 0.00 | 76 | 1016.5 |
| 20260903042703 | 80 | 295 | 2.0 | 9.0 | 0.00 | 0.00 | 0.00 | 76 | 1016.4 |
| 20260903042603 | 80 | 295 | 2.0 | 9.0 | 0.00 | 0.00 | 0.00 | 76 | 1016.5 |
| 20260903042503 | 80 | 296 | 2.0 | 9.0 | 0.00 | 0.00 | 0.00 | 76 | 1016.5 |
| 20260903042403 | 80 | 297 | 2.0 | 9.0 | 0.00 | 0.00 | 0.00 | 76 | 1016.5 |
| 20260903042306 | 80 | 296 | 1.0 | 6.0 | 0.00 | 0.00 | 0.00 | 76 | 1016.5 |
| 20260903042203 | 80 | 299 | 1.0 | 6.0 | 0.00 | 0.00 | 0.00 | 76 | 1016.5 |
| 20260903042103 | 80 | 299 | 1.0 | 6.0 | 0.00 | 0.00 | 0.00 | 76 | 1016.4 |
| 20260903042003 | 80 | 300 | 1.0 | 6.0 | 0.00 | 0.00 | 0.00 | 76 | 1016.4 |
| 20260903041903 | 80 | 301 | 1.0 | 6.0 | 0.00 | 0.00 | 0.00 | 76 | 1016.4 |
| 20260903041803 | 80 | 304 | 1.0 | 5.0 | 0.00 | 0.00 | 0.00 | 76 | 1016.5 |
| 20260903041703 | 80 | 304 | 1.0 | 5.0 | 0.00 | 0.00 | 0.00 | 76 | 1016.4 |
| 20260903041603 | 80 | 302 | 1.0 | 5.0 | 0.00 | 0.00 | 0.00 | 76 | 1016.4 |
| 20260903041503 | 80 | 301 | 1.0 | 6.0 | 0.00 | 0.00 | 0.00 | 76 | 1016.4 |
| 20260903041403 | 80 | 301 | 2.0 | 6.0 | 0.00 | 0.00 | 0.00 | 76 | 1016.4 |
| 20260903041303 | 80 | 300 | 2.0 | 6.0 | 0.00 | 0.00 | 0.00 | 76 | 1016.5 |
| 20260903041203 | 80 | 299 | 2.0 | 6.0 | 0.00 | 0.00 | 0.00 | 76 | 1016.5 |
| 20260903041103 | 80 | 298 | 2.0 | 6.0 | 0.00 | 0.00 | 0.00 | 76 | 1016.5 |
| 20260903041003 | 80 | 298 | 2.0 | 6.0 | 0.00 | 0.00 | 0.00 | 76 | 1016.5 |
| 20260903040903 | 80 | 299 | 2.0 | 6.0 | 0.00 | 0.00 | 0.00 | 76 | 1016.4 |
| 20260903040804 | 80 | 301 | 2.0 | 6.0 | 0.00 | 0.00 | 0.00 | 76 | 1016.4 |
| 20260903040703 | 80 | 300 | 2.0 | 6.0 | 0.00 | 0.00 | 0.00 | 76 | 1016.4 |
| 20260903040603 | 80 | 301 | 2.0 | 6.0 | 0.00 | 0.00 | 0.00 | 76 | 1016.4 |
| 20260903040503 | 80 | 300 | 2.0 | 6.0 | 0.00 | 0.00 | 0.00 | 76 | 1016.4 |
| 20260903040403 | 80 | 302 | 2.0 | 5.0 | 0.00 | 0.00 | 0.00 | 76 | 1016.4 |
| 20260903040303 | 80 | 305 | 2.0 | 5.0 | 0.00 | 0.00 | 0.00 | 76 | 1016.4 |
| 20260903040203 | 80 | 307 | 2.0 | 6.0 | 0.00 | 0.00 | 0.00 | 76 | 1016.4 |
| 20260903040003 | 80 | 306 | 2.0 | 6.0 | 0.00 | 0.00 | 0.00 | 76 | 1016.4 |
| 20260903035904 | 80 | 305 | 2.0 | 6.0 | 0.00 | 0.00 | 0.00 | 76 | 1016.4 |
| 20260903035804 | 80 | 302 | 2.0 | 6.0 | 0.00 | 0.00 | 0.00 | 76 | 1016.4 |
| 20260903035704 | 80 | 302 | 1.0 | 6.0 | 0.00 | 0.00 | 0.00 | 76 | 1016.4 |
| 20260903035604 | 80 | 301 | 2.0 | 6.0 | 0.00 | 0.00 | 0.00 | 76 | 1016.4 |
| 20260903035504 | 80 | 300 | 2.0 | 6.0 | 0.00 | 0.00 | 0.00 | 76 | 1016.4 |
| 20260903035404 | 80 | 298 | 2.0 | 6.0 | 0.00 | 0.00 | 0.00 | 76 | 1016.4 |
| 20260903035306 | 80 | 297 | 2.0 | 6.0 | 0.00 | 0.00 | 0.00 | 76 | 1016.4 |
| 20260903035204 | 80 | 295 | 1.0 | 6.0 | 0.00 | 0.00 | 0.00 | 76 | 1016.4 |
| 20260903035104 | 80 | 296 | 2.0 | 6.0 | 0.00 | 0.00 | 0.00 | 76 | 1016.4 |
| 20260903035004 | 80 | 297 | 2.0 | 6.0 | 0.00 | 0.00 | 0.00 | 76 | 1016.4 |
| 20260903034904 | 80 | 297 | 2.0 | 6.0 | 0.00 | 0.00 | 0.00 | 76 | 1016.4 |
| 20260903034804 | 80 | 298 | 1.0 | 6.0 | 0.00 | 0.00 | 0.00 | 76 | 1016.4 |
| 20260903034704 | 80 | 298 | 2.0 | 8.0 | 0.00 | 0.00 | 0.00 | 76 | 1016.4 |
| 20260903034604 | 80 | 298 | 2.0 | 8.0 | 0.00 | 0.00 | 0.00 | 76 | 1016.4 |
| 20260903034504 | 80 | 299 | 2.0 | 8.0 | 0.00 | 0.00 | 0.00 | 76 | 1016.3 |
| 20260903034404 | 80 | 300 | 2.0 | 8.0 | 0.00 | 0.00 | 0.00 | 76 | 1016.3 |
| 20260903034304 | 80 | 299 | 2.0 | 8.0 | 0.00 | 0.00 | 0.00 | 76 | 1016.3 |
| 20260903034204 | 80 | 300 | 2.0 | 8.0 | 0.00 | 0.00 | 0.00 | 76 | 1016.4 |
| 20260903034104 | 80 | 299 | 2.0 | 8.0 | 0.00 | 0.00 | 0.00 | 76 | 1016.4 |
| 20260903034004 | 80 | 300 | 2.0 | 8.0 | 0.00 | 0.00 | 0.00 | 76 | 1016.3 |
| 20260903033904 | 80 | 300 | 2.0 | 8.0 | 0.00 | 0.00 | 0.00 | 76 | 1016.3 |
| 20260903033804 | 80 | 301 | 2.0 | 8.0 | 0.00 | 0.00 | 0.00 | 76 | 1016.4 |
| 20260903033704 | 80 | 301 | 2.0 | 7.0 | 0.00 | 0.00 | 0.00 | 76 | 1016.4 |
| 20260903033604 | 80 | 302 | 2.0 | 7.0 | 0.00 | 0.00 | 0.00 | 76 | 1016.3 |
| 20260903033504 | 80 | 302 | 2.0 | 7.0 | 0.00 | 0.00 | 0.00 | 76 | 1016.4 |
| 20260903033404 | 80 | 301 | 2.0 | 7.0 | 0.00 | 0.00 | 0.00 | 76 | 1016.4 |
| 20260903033304 | 80 | 302 | 2.0 | 7.0 | 0.00 | 0.00 | 0.00 | 76 | 1016.4 |
| 20260903033204 | 80 | 302 | 2.0 | 7.0 | 0.00 | 0.00 | 0.00 | 76 | 1016.4 |
| 20260903033104 | 80 | 303 | 2.0 | 7.0 | 0.00 | 0.00 | 0.00 | 76 | 1016.3 |
| 20260903033004 | 80 | 301 | 2.0 | 7.0 | 0.00 | 0.00 | 0.00 | 76 | 1016.4 |
| 20260903032904 | 80 | 304 | 2.0 | 7.0 | 0.00 | 0.00 | 0.00 | 76 | 1016.4 |
| 20260903032804 | 80 | 303 | 2.0 | 7.0 | 0.00 | 0.00 | 0.00 | 76 | 1016.4 |
| 20260903032704 | 80 | 302 | 3.0 | 9.0 | 0.00 | 0.00 | 0.00 | 76 | 1016.4 |
| 20260903032604 | 80 | 303 | 3.0 | 9.0 | 0.00 | 0.00 | 0.00 | 76 | 1016.3 |
| 20260903032504 | 80 | 303 | 3.0 | 9.0 | 0.00 | 0.00 | 0.00 | 76 | 1016.3 |
| 20260903032404 | 80 | 302 | 3.0 | 9.0 | 0.00 | 0.00 | 0.00 | 76 | 1016.4 |
| 20260903032306 | 80 | 302 | 3.0 | 9.0 | 0.00 | 0.00 | 0.00 | 76 | 1016.4 |
| 20260903032204 | 80 | 302 | 3.0 | 9.0 | 0.00 | 0.00 | 0.00 | 76 | 1016.3 |
| 20260903032104 | 80 | 303 | 3.0 | 9.0 | 0.00 | 0.00 | 0.00 | 76 | 1016.3 |
| 20260903032004 | 80 | 303 | 3.0 | 9.0 | 0.00 | 0.00 | 0.00 | 76 | 1016.4 |
| 20260903031904 | 80 | 299 | 2.0 | 9.0 | 0.00 | 0.00 | 0.00 | 76 | 1016.4 |
| 20260903031804 | 80 | 301 | 2.0 | 9.0 | 0.00 | 0.00 | 0.00 | 76 | 1016.5 |
| 20260903031704 | 80 | 302 | 2.0 | 9.0 | 0.00 | 0.00 | 0.00 | 76 | 1016.5 |
| 20260903031604 | 80 | 302 | 1.0 | 6.0 | 0.00 | 0.00 | 0.00 | 76 | 1016.4 |
| 20260903031504 | 80 | 301 | 2.0 | 6.0 | 0.00 | 0.00 | 0.00 | 76 | 1016.4 |
| 20260903031404 | 80 | 301 | 2.0 | 7.0 | 0.00 | 0.00 | 0.00 | 76 | 1016.4 |
| 20260903031304 | 80 | 301 | 2.0 | 7.0 | 0.00 | 0.00 | 0.00 | 76 | 1016.4 |
| 20260903031204 | 80 | 301 | 2.0 | 7.0 | 0.00 | 0.00 | 0.00 | 76 | 1016.4 |
| 20260903031103 | 80 | 300 | 2.0 | 7.0 | 0.00 | 0.00 | 0.00 | 76 | 1016.4 |
| 20260903031004 | 80 | 301 | 3.0 | 7.0 | 0.00 | 0.00 | 0.00 | 76 | 1016.4 |
| 20260903030903 | 80 | 301 | 2.0 | 7.0 | 0.00 | 0.00 | 0.00 | 76 | 1016.4 |
| 20260903030804 | 80 | 299 | 3.0 | 7.0 | 0.00 | 0.00 | 0.00 | 76 | 1016.4 |
| 20260903030703 | 80 | 301 | 3.0 | 7.0 | 0.00 | 0.00 | 0.00 | 76 | 1016.3 |
| 20260903030603 | 81 | 300 | 4.0 | 7.0 | 0.00 | 0.00 | 0.00 | 76 | 1016.4 |
| 20260903030503 | 80 | 300 | 3.0 | 7.0 | 0.00 | 0.00 | 0.00 | 76 | 1016.4 |
| 20260903030403 | 81 | 300 | 3.0 | 7.0 | 0.00 | 0.00 | 0.00 | 76 | 1016.4 |
| 20260903030303 | 81 | 300 | 3.0 | 7.0 | 0.00 | 0.00 | 0.00 | 76 | 1016.3 |
| 20260903030203 | 81 | 299 | 3.0 | 7.0 | 0.00 | 0.00 | 0.00 | 76 | 1016.4 |
| 20260903030103 | 81 | 299 | 3.0 | 7.0 | 0.00 | 0.00 | 0.00 | 76 | 1016.3 |
| 20260903030004 | 81 | 299 | 3.0 | 7.0 | 0.00 | 0.00 | 0.00 | 76 | 1016.3 |
| 20260903025903 | 81 | 299 | 3.0 | 7.0 | 0.00 | 0.00 | 0.00 | 76 | 1016.4 |
| 20260903025803 | 81 | 299 | 3.0 | 7.0 | 0.00 | 0.00 | 0.00 | 76 | 1016.3 |
| 20260903025703 | 81 | 297 | 2.0 | 7.0 | 0.00 | 0.00 | 0.00 | 76 | 1016.4 |
| 20260903025603 | 81 | 298 | 2.0 | 8.0 | 0.00 | 0.00 | 0.00 | 76 | 1016.4 |
| 20260903025503 | 81 | 297 | 3.0 | 8.0 | 0.00 | 0.00 | 0.00 | 76 | 1016.4 |
| 20260903025403 | 81 | 298 | 2.0 | 8.0 | 0.00 | 0.00 | 0.00 | 76 | 1016.4 |
| 20260903025306 | 81 | 298 | 2.0 | 8.0 | 0.00 | 0.00 | 0.00 | 76 | 1016.4 |
| 20260903025203 | 81 | 300 | 2.0 | 8.0 | 0.00 | 0.00 | 0.00 | 76 | 1016.4 |
| 20260903025103 | 81 | 301 | 2.0 | 8.0 | 0.00 | 0.00 | 0.00 | 76 | 1016.4 |
| 20260903025003 | 81 | 299 | 2.0 | 8.0 | 0.00 | 0.00 | 0.00 | 76 | 1016.4 |
| 20260903024903 | 81 | 299 | 2.0 | 8.0 | 0.00 | 0.00 | 0.00 | 76 | 1016.4 |
| 20260903024803 | 81 | 298 | 2.0 | 8.0 | 0.00 | 0.00 | 0.00 | 76 | 1016.4 |
| 20260903024703 | 81 | 298 | 2.0 | 8.0 | 0.00 | 0.00 | 0.00 | 76 | 1016.4 |
| 20260903024603 | 81 | 294 | 1.0 | 7.0 | 0.00 | 0.00 | 0.00 | 76 | 1016.4 |
| 20260903024503 | 81 | 296 | 1.0 | 6.0 | 0.00 | 0.00 | 0.00 | 76 | 1016.4 |
| 20260903024403 | 81 | 295 | 1.0 | 6.0 | 0.00 | 0.00 | 0.00 | 76 | 1016.5 |
| 20260903024303 | 81 | 295 | 1.0 | 6.0 | 0.00 | 0.00 | 0.00 | 76 | 1016.4 |
| 20260903024203 | 81 | 293 | 1.0 | 6.0 | 0.00 | 0.00 | 0.00 | 76 | 1016.4 |
| 20260903024103 | 81 | 294 | 1.0 | 6.0 | 0.00 | 0.00 | 0.00 | 76 | 1016.4 |
| 20260903024003 | 81 | 293 | 1.0 | 5.0 | 0.00 | 0.00 | 0.00 | 76 | 1016.5 |
| 20260903023903 | 81 | 292 | 1.0 | 4.0 | 0.00 | 0.00 | 0.00 | 76 | 1016.5 |
| 20260903023803 | 81 | 293 | 1.0 | 4.0 | 0.00 | 0.00 | 0.00 | 76 | 1016.5 |
| 20260903023703 | 81 | 294 | 1.0 | 4.0 | 0.00 | 0.00 | 0.00 | 76 | 1016.5 |
| 20260903023603 | 81 | 295 | 1.0 | 4.0 | 0.00 | 0.00 | 0.00 | 76 | 1016.5 |
| 20260903023503 | 81 | 296 | 1.0 | 4.0 | 0.00 | 0.00 | 0.00 | 76 | 1016.5 |
| 20260903023403 | 81 | 296 | 1.0 | 6.0 | 0.00 | 0.00 | 0.00 | 75 | 1016.5 |
| 20260903023303 | 81 | 298 | 2.0 | 7.0 | 0.00 | 0.00 | 0.00 | 75 | 1016.5 |
| 20260903023203 | 81 | 298 | 2.0 | 7.0 | 0.00 | 0.00 | 0.00 | 76 | 1016.5 |
| 20260903023103 | 81 | 299 | 2.0 | 7.0 | 0.00 | 0.00 | 0.00 | 75 | 1016.6 |
| 20260903023003 | 81 | 299 | 2.0 | 7.0 | 0.00 | 0.00 | 0.00 | 75 | 1016.6 |
| 20260903022903 | 81 | 299 | 2.0 | 7.0 | 0.00 | 0.00 | 0.00 | 75 | 1016.5 |
| 20260903022803 | 81 | 300 | 2.0 | 7.0 | 0.00 | 0.00 | 0.00 | 75 | 1016.6 |
| 20260903022703 | 81 | 299 | 3.0 | 7.0 | 0.00 | 0.00 | 0.00 | 75 | 1016.6 |
| 20260903022603 | 81 | 299 | 3.0 | 7.0 | 0.00 | 0.00 | 0.00 | 75 | 1016.5 |
| 20260903022504 | 81 | 298 | 3.0 | 7.0 | 0.00 | 0.00 | 0.00 | 76 | 1016.5 |
| 20260903022403 | 81 | 299 | 3.0 | 7.0 | 0.00 | 0.00 | 0.00 | 75 | 1016.6 |
| 20260903022306 | 81 | 298 | 3.0 | 9.0 | 0.00 | 0.00 | 0.00 | 75 | 1016.5 |
| 20260903022203 | 81 | 299 | 3.0 | 9.0 | 0.00 | 0.00 | 0.00 | 76 | 1016.6 |
| 20260903022103 | 81 | 298 | 3.0 | 9.0 | 0.00 | 0.00 | 0.00 | 76 | 1016.7 |
| 20260903022003 | 81 | 298 | 2.0 | 9.0 | 0.00 | 0.00 | 0.00 | 75 | 1016.6 |
| 20260903021903 | 81 | 298 | 2.0 | 9.0 | 0.00 | 0.00 | 0.00 | 76 | 1016.6 |
| 20260903021803 | 81 | 296 | 2.0 | 9.0 | 0.00 | 0.00 | 0.00 | 75 | 1016.6 |
| 20260903021703 | 81 | 296 | 2.0 | 9.0 | 0.00 | 0.00 | 0.00 | 75 | 1016.8 |
| 20260903021603 | 81 | 297 | 2.0 | 9.0 | 0.00 | 0.00 | 0.00 | 75 | 1016.7 |
| 20260903021503 | 81 | 299 | 1.0 | 9.0 | 0.00 | 0.00 | 0.00 | 75 | 1016.7 |
| 20260903021403 | 81 | 299 | 1.0 | 9.0 | 0.00 | 0.00 | 0.00 | 75 | 1016.7 |
| 20260903021303 | 81 | 298 | 1.0 | 6.0 | 0.00 | 0.00 | 0.00 | 75 | 1016.7 |
| 20260903021203 | 81 | 297 | 1.0 | 6.0 | 0.00 | 0.00 | 0.00 | 76 | 1016.6 |
| 20260903021103 | 81 | 298 | 1.0 | 6.0 | 0.00 | 0.00 | 0.00 | 75 | 1016.7 |
| 20260903021003 | 81 | 298 | 1.0 | 6.0 | 0.00 | 0.00 | 0.00 | 75 | 1016.7 |
| 20260903020903 | 81 | 299 | 1.0 | 6.0 | 0.00 | 0.00 | 0.00 | 76 | 1016.8 |
| 20260903020803 | 81 | 300 | 1.0 | 6.0 | 0.00 | 0.00 | 0.00 | 76 | 1016.8 |
| 20260903020703 | 81 | 301 | 1.0 | 6.0 | 0.00 | 0.00 | 0.00 | 75 | 1016.8 |
| 20260903020603 | 81 | 299 | 1.0 | 6.0 | 0.00 | 0.00 | 0.00 | 75 | 1016.8 |
| 20260903020503 | 81 | 297 | 1.0 | 6.0 | 0.00 | 0.00 | 0.00 | 75 | 1016.7 |
| 20260903020403 | 81 | 298 | 1.0 | 6.0 | 0.00 | 0.00 | 0.00 | 75 | 1016.9 |
| 20260903020303 | 81 | 299 | 1.0 | 6.0 | 0.00 | 0.00 | 0.00 | 75 | 1016.9 |
| 20260903020203 | 81 | 298 | 1.0 | 6.0 | 0.00 | 0.00 | 0.00 | 75 | 1016.7 |
| 20260903020003 | 81 | 299 | 2.0 | 6.0 | 0.00 | 0.00 | 0.00 | 75 | 1016.7 |
| 20260903015903 | 81 | 299 | 2.0 | 6.0 | 0.00 | 0.00 | 0.00 | 75 | 1016.8 |
| 20260903015803 | 81 | 299 | 2.0 | 6.0 | 0.00 | 0.00 | 0.00 | 76 | 1016.8 |
| 20260903015703 | 81 | 298 | 2.0 | 6.0 | 0.00 | 0.00 | 0.00 | 76 | 1016.8 |
| 20260903015603 | 81 | 297 | 2.0 | 10.0 | 0.00 | 0.00 | 0.00 | 75 | 1016.9 |
| 20260903015503 | 81 | 298 | 2.0 | 10.0 | 0.00 | 0.00 | 0.00 | 76 | 1016.8 |
| 20260903015403 | 81 | 297 | 2.0 | 10.0 | 0.00 | 0.00 | 0.00 | 76 | 1016.8 |
| 20260903015305 | 81 | 297 | 2.0 | 10.0 | 0.00 | 0.00 | 0.00 | 76 | 1016.7 |
| 20260903015203 | 81 | 297 | 2.0 | 10.0 | 0.00 | 0.00 | 0.00 | 75 | 1016.8 |
| 20260903015103 | 81 | 294 | 2.0 | 10.0 | 0.00 | 0.00 | 0.00 | 76 | 1016.9 |
| 20260903015003 | 81 | 296 | 2.0 | 10.0 | 0.00 | 0.00 | 0.00 | 75 | 1016.8 |
| 20260903014903 | 81 | 296 | 2.0 | 10.0 | 0.00 | 0.00 | 0.00 | 75 | 1016.8 |
| 20260903014803 | 81 | 298 | 2.0 | 10.0 | 0.00 | 0.00 | 0.00 | 75 | 1016.8 |
| 20260903014703 | 81 | 299 | 2.0 | 10.0 | 0.00 | 0.00 | 0.00 | 75 | 1016.9 |
| 20260903014603 | 81 | 301 | 2.0 | 9.0 | 0.00 | 0.00 | 0.00 | 75 | 1016.8 |
| 20260903014503 | 81 | 301 | 2.0 | 9.0 | 0.00 | 0.00 | 0.00 | 75 | 1016.8 |
| 20260903014403 | 81 | 302 | 2.0 | 9.0 | 0.00 | 0.00 | 0.00 | 75 | 1016.8 |
| 20260903014303 | 81 | 301 | 2.0 | 9.0 | 0.00 | 0.00 | 0.00 | 75 | 1016.8 |
| 20260903014203 | 81 | 300 | 3.0 | 9.0 | 0.00 | 0.00 | 0.00 | 75 | 1016.8 |
| 20260903014103 | 81 | 300 | 3.0 | 9.0 | 0.00 | 0.00 | 0.00 | 75 | 1016.9 |
| 20260903014003 | 81 | 300 | 3.0 | 9.0 | 0.00 | 0.00 | 0.00 | 75 | 1016.8 |
| 20260903013903 | 81 | 300 | 3.0 | 9.0 | 0.00 | 0.00 | 0.00 | 75 | 1016.9 |
| 20260903013803 | 81 | 299 | 3.0 | 8.0 | 0.00 | 0.00 | 0.00 | 75 | 1016.8 |
| 20260903013703 | 81 | 298 | 2.0 | 8.0 | 0.00 | 0.00 | 0.00 | 75 | 1016.9 |
| 20260903013603 | 81 | 297 | 2.0 | 7.0 | 0.00 | 0.00 | 0.00 | 75 | 1016.9 |
| 20260903013503 | 81 | 298 | 3.0 | 7.0 | 0.00 | 0.00 | 0.00 | 75 | 1016.9 |
| 20260903013403 | 81 | 298 | 3.0 | 7.0 | 0.00 | 0.00 | 0.00 | 75 | 1017.0 |
| 20260903013304 | 81 | 297 | 3.0 | 7.0 | 0.00 | 0.00 | 0.00 | 75 | 1016.9 |
| 20260903013204 | 81 | 298 | 3.0 | 7.0 | 0.00 | 0.00 | 0.00 | 75 | 1017.0 |
| 20260903013104 | 81 | 298 | 2.0 | 7.0 | 0.00 | 0.00 | 0.00 | 75 | 1016.9 |
| 20260903013004 | 81 | 297 | 2.0 | 7.0 | 0.00 | 0.00 | 0.00 | 75 | 1017.1 |
| 20260903012904 | 81 | 298 | 2.0 | 7.0 | 0.00 | 0.00 | 0.00 | 75 | 1017.0 |
| 20260903012804 | 81 | 299 | 2.0 | 7.0 | 0.00 | 0.00 | 0.00 | 75 | 1017.0 |
| 20260903012704 | 81 | 298 | 2.0 | 7.0 | 0.00 | 0.00 | 0.00 | 75 | 1017.0 |
| 20260903012604 | 81 | 298 | 1.0 | 7.0 | 0.00 | 0.00 | 0.00 | 75 | 1016.9 |
| 20260903012504 | 81 | 296 | 1.0 | 6.0 | 0.00 | 0.00 | 0.00 | 75 | 1016.9 |
| 20260903012404 | 81 | 293 | 1.0 | 6.0 | 0.00 | 0.00 | 0.00 | 75 | 1016.9 |
| 20260903012306 | 81 | 296 | 1.0 | 6.0 | 0.00 | 0.00 | 0.00 | 75 | 1016.9 |
| 20260903012204 | 81 | 293 | 1.0 | 6.0 | 0.00 | 0.00 | 0.00 | 75 | 1016.9 |
| 20260903012104 | 81 | 295 | 1.0 | 6.0 | 0.00 | 0.00 | 0.00 | 75 | 1016.9 |
| 20260903012004 | 81 | 297 | 1.0 | 6.0 | 0.00 | 0.00 | 0.00 | 75 | 1016.9 |
| 20260903011904 | 81 | 296 | 1.0 | 6.0 | 0.00 | 0.00 | 0.00 | 75 | 1016.9 |
| 20260903011804 | 81 | 297 | 2.0 | 6.0 | 0.00 | 0.00 | 0.00 | 75 | 1016.9 |
| 20260903011704 | 81 | 299 | 2.0 | 6.0 | 0.00 | 0.00 | 0.00 | 75 | 1016.9 |
| 20260903011604 | 81 | 298 | 2.0 | 6.0 | 0.00 | 0.00 | 0.00 | 75 | 1016.9 |
| 20260903011504 | 81 | 299 | 2.0 | 6.0 | 0.00 | 0.00 | 0.00 | 75 | 1017.0 |
| 20260903011404 | 81 | 299 | 2.0 | 6.0 | 0.00 | 0.00 | 0.00 | 75 | 1016.9 |
| 20260903011304 | 81 | 299 | 2.0 | 6.0 | 0.00 | 0.00 | 0.00 | 75 | 1016.9 |
| 20260903011204 | 81 | 299 | 2.0 | 6.0 | 0.00 | 0.00 | 0.00 | 75 | 1016.9 |
| 20260903011104 | 81 | 299 | 2.0 | 6.0 | 0.00 | 0.00 | 0.00 | 75 | 1017.0 |
| 20260903011004 | 81 | 298 | 2.0 | 6.0 | 0.00 | 0.00 | 0.00 | 75 | 1017.0 |
| 20260903010904 | 81 | 300 | 2.0 | 6.0 | 0.00 | 0.00 | 0.00 | 75 | 1017.1 |
| 20260903010804 | 81 | 300 | 2.0 | 6.0 | 0.00 | 0.00 | 0.00 | 75 | 1016.9 |
| 20260903010704 | 81 | 299 | 2.0 | 6.0 | 0.00 | 0.00 | 0.00 | 75 | 1017.0 |
| 20260903010604 | 81 | 299 | 2.0 | 6.0 | 0.00 | 0.00 | 0.00 | 75 | 1017.1 |
| 20260903010504 | 81 | 297 | 2.0 | 6.0 | 0.00 | 0.00 | 0.00 | 75 | 1017.0 |
| 20260903010404 | 81 | 298 | 1.0 | 6.0 | 0.00 | 0.00 | 0.00 | 75 | 1017.0 |
| 20260903010304 | 81 | 300 | 2.0 | 7.0 | 0.00 | 0.00 | 0.00 | 75 | 1017.0 |
| 20260903010204 | 81 | 299 | 2.0 | 7.0 | 0.00 | 0.00 | 0.00 | 75 | 1017.1 |
| 20260903010104 | 81 | 300 | 2.0 | 7.0 | 0.00 | 0.00 | 0.00 | 75 | 1017.0 |
| 20260903010004 | 81 | 300 | 2.0 | 7.0 | 0.00 | 0.00 | 0.00 | 75 | 1017.0 |
| 20260903005904 | 81 | 299 | 2.0 | 8.0 | 0.00 | 0.00 | 0.00 | 75 | 1017.0 |
| 20260903005804 | 81 | 299 | 3.0 | 8.0 | 0.00 | 0.00 | 0.00 | 75 | 1017.0 |
| 20260903005704 | 81 | 299 | 3.0 | 8.0 | 0.00 | 0.00 | 0.00 | 75 | 1017.0 |
| 20260903005603 | 81 | 300 | 3.0 | 8.0 | 0.00 | 0.00 | 0.00 | 75 | 1017.0 |
| 20260903005504 | 81 | 300 | 3.0 | 8.0 | 0.00 | 0.00 | 0.00 | 75 | 1017.0 |
| 20260903005404 | 81 | 300 | 3.0 | 8.0 | 0.00 | 0.00 | 0.00 | 75 | 1017.1 |
| 20260903005306 | 81 | 299 | 3.0 | 8.0 | 0.00 | 0.00 | 0.00 | 75 | 1017.0 |
| 20260903005203 | 81 | 299 | 3.0 | 8.0 | 0.00 | 0.00 | 0.00 | 75 | 1017.0 |
| 20260903005104 | 81 | 298 | 4.0 | 8.0 | 0.00 | 0.00 | 0.00 | 74 | 1017.0 |
| 20260903005004 | 81 | 298 | 3.0 | 8.0 | 0.00 | 0.00 | 0.00 | 74 | 1017.1 |
| 20260903004904 | 81 | 298 | 4.0 | 8.0 | 0.00 | 0.00 | 0.00 | 74 | 1017.1 |
| 20260903004804 | 81 | 297 | 4.0 | 8.0 | 0.00 | 0.00 | 0.00 | 74 | 1017.0 |
| 20260903004703 | 81 | 297 | 4.0 | 10.0 | 0.00 | 0.00 | 0.00 | 74 | 1017.0 |
| 20260903004604 | 81 | 296 | 4.0 | 10.0 | 0.00 | 0.00 | 0.00 | 74 | 1017.0 |
| 20260903004504 | 81 | 297 | 5.0 | 10.0 | 0.00 | 0.00 | 0.00 | 74 | 1017.0 |
| 20260903004404 | 81 | 297 | 4.0 | 10.0 | 0.00 | 0.00 | 0.00 | 74 | 1017.1 |
| 20260903004304 | 81 | 298 | 4.0 | 10.0 | 0.00 | 0.00 | 0.00 | 74 | 1017.0 |
| 20260903004204 | 81 | 298 | 3.0 | 10.0 | 0.00 | 0.00 | 0.00 | 74 | 1017.0 |
| 20260903004103 | 81 | 298 | 3.0 | 10.0 | 0.00 | 0.00 | 0.00 | 74 | 1017.1 |
| 20260903004004 | 81 | 299 | 3.0 | 10.0 | 0.00 | 0.00 | 0.00 | 74 | 1017.1 |
| 20260903003903 | 81 | 300 | 3.0 | 11.0 | 0.00 | 0.00 | 0.00 | 74 | 1016.9 |
| 20260903003803 | 81 | 301 | 3.0 | 12.0 | 0.00 | 0.00 | 0.00 | 74 | 1017.0 |
| 20260903003703 | 81 | 302 | 3.0 | 12.0 | 0.00 | 0.00 | 0.00 | 74 | 1016.9 |
| 20260903003603 | 81 | 302 | 3.0 | 12.0 | 0.00 | 0.00 | 0.00 | 74 | 1017.0 |
| 20260903003503 | 81 | 302 | 3.0 | 12.0 | 0.00 | 0.00 | 0.00 | 74 | 1016.8 |
| 20260903003403 | 81 | 301 | 3.0 | 12.0 | 0.00 | 0.00 | 0.00 | 74 | 1016.9 |
| 20260903003303 | 81 | 300 | 3.0 | 12.0 | 0.00 | 0.00 | 0.00 | 74 | 1017.0 |
| 20260903003203 | 81 | 301 | 3.0 | 12.0 | 0.00 | 0.00 | 0.00 | 74 | 1017.1 |
| 20260903003103 | 82 | 300 | 4.0 | 12.0 | 0.00 | 0.00 | 0.00 | 74 | 1017.0 |
| 20260903003003 | 82 | 299 | 4.0 | 12.0 | 0.00 | 0.00 | 0.00 | 74 | 1017.2 |
| 20260903002903 | 82 | 298 | 4.0 | 12.0 | 0.00 | 0.00 | 0.00 | 74 | 1017.1 |
| 20260903002803 | 82 | 300 | 4.0 | 11.0 | 0.00 | 0.00 | 0.00 | 74 | 1017.1 |
| 20260903002703 | 82 | 299 | 4.0 | 11.0 | 0.00 | 0.00 | 0.00 | 74 | 1017.0 |
| 20260903002603 | 82 | 300 | 4.0 | 11.0 | 0.00 | 0.00 | 0.00 | 74 | 1017.0 |
| 20260903002503 | 82 | 300 | 4.0 | 11.0 | 0.00 | 0.00 | 0.00 | 74 | 1017.0 |
| 20260903002403 | 82 | 300 | 4.0 | 12.0 | 0.00 | 0.00 | 0.00 | 74 | 1017.0 |
| 20260903002306 | 82 | 299 | 4.0 | 12.0 | 0.00 | 0.00 | 0.00 | 74 | 1017.0 |
| 20260903002204 | 82 | 298 | 4.0 | 12.0 | 0.00 | 0.00 | 0.00 | 74 | 1016.9 |
| 20260903002103 | 82 | 299 | 4.0 | 12.0 | 0.00 | 0.00 | 0.00 | 74 | 1016.9 |
| 20260903002003 | 82 | 298 | 4.0 | 12.0 | 0.00 | 0.00 | 0.00 | 74 | 1017.0 |
| 20260903001903 | 82 | 298 | 4.0 | 12.0 | 0.00 | 0.00 | 0.00 | 74 | 1017.0 |
| 20260903001803 | 82 | 298 | 4.0 | 12.0 | 0.00 | 0.00 | 0.00 | 74 | 1016.9 |
| 20260903001703 | 82 | 298 | 4.0 | 12.0 | 0.00 | 0.00 | 0.00 | 74 | 1017.0 |
| 20260903001603 | 82 | 298 | 5.0 | 12.0 | 0.00 | 0.00 | 0.00 | 74 | 1017.0 |
| 20260903001503 | 82 | 297 | 4.0 | 12.0 | 0.00 | 0.00 | 0.00 | 74 | 1016.9 |
| 20260903001403 | 82 | 297 | 4.0 | 9.0 | 0.00 | 0.00 | 0.00 | 74 | 1016.9 |
| 20260903001303 | 82 | 298 | 4.0 | 9.0 | 0.00 | 0.00 | 0.00 | 74 | 1017.0 |
| 20260903001203 | 82 | 298 | 4.0 | 9.0 | 0.00 | 0.00 | 0.00 | 74 | 1017.2 |
| 20260903001103 | 82 | 299 | 4.0 | 9.0 | 0.00 | 0.00 | 0.00 | 74 | 1017.3 |
| 20260903001003 | 82 | 299 | 4.0 | 9.0 | 0.00 | 0.00 | 0.00 | 74 | 1017.2 |
| 20260903000903 | 82 | 299 | 4.0 | 9.0 | 0.00 | 0.00 | 0.00 | 74 | 1017.3 |
| 20260903000803 | 82 | 298 | 3.0 | 9.0 | 0.00 | 0.00 | 0.00 | 74 | 1017.4 |
| 20260903000703 | 82 | 298 | 3.0 | 9.0 | 0.00 | 0.00 | 0.00 | 74 | 1017.3 |
| 20260903000603 | 82 | 300 | 2.0 | 9.0 | 0.00 | 0.00 | 0.00 | 74 | 1017.2 |
| 20260903000503 | 82 | 306 | 1.0 | 7.0 | 0.00 | 0.00 | 0.00 | 74 | 1017.3 |
| 20260903000403 | 82 | 303 | 1.0 | 7.0 | 0.00 | 0.00 | 0.00 | 74 | 1017.3 |
| 20260903000303 | 82 | 303 | 1.0 | 6.0 | 0.00 | 0.00 | 0.00 | 74 | 1017.2 |
| 20260903000204 | 82 | 301 | 1.0 | 5.0 | 0.00 | 0.00 | 0.00 | 74 | 1017.3 |
| 20260903000103 | 82 | 304 | 1.0 | 6.0 | 0.00 | 0.00 | 0.00 | 74 | 1017.2 |
| 20260903000003 | 82 | 304 | 1.0 | 6.0 | 0.00 | 0.00 | 0.00 | 74 | 1017.2 |
| 20260902235903 | 82 | 303 | 1.0 | 6.0 | 0.00 | 0.00 | 0.00 | 74 | 1017.2 |
| 20260902235803 | 82 | 305 | 2.0 | 6.0 | 0.00 | 0.00 | 0.00 | 74 | 1017.1 |
| 20260902235703 | 82 | 303 | 2.0 | 6.0 | 0.00 | 0.00 | 0.00 | 74 | 1017.2 |
| 20260902235603 | 82 | 302 | 2.0 | 7.0 | 0.00 | 0.00 | 0.00 | 74 | 1017.2 |
| 20260902235503 | 82 | 301 | 2.0 | 7.0 | 0.00 | 0.00 | 0.00 | 74 | 1017.2 |
| 20260902235403 | 82 | 302 | 2.0 | 7.0 | 0.00 | 0.00 | 0.00 | 74 | 1017.2 |
| 20260902235305 | 82 | 299 | 2.0 | 7.0 | 0.00 | 0.00 | 0.00 | 74 | 1017.3 |
| 20260902235203 | 82 | 299 | 2.0 | 7.0 | 0.00 | 0.00 | 0.00 | 74 | 1017.4 |
| 20260902235103 | 82 | 297 | 2.0 | 7.0 | 0.00 | 0.00 | 0.00 | 74 | 1017.3 |
| 20260902235003 | 82 | 297 | 2.0 | 8.0 | 0.00 | 0.00 | 0.00 | 74 | 1017.3 |
| 20260902234903 | 82 | 295 | 2.0 | 8.0 | 0.00 | 0.00 | 0.00 | 74 | 1017.3 |
| 20260902234803 | 82 | 293 | 2.0 | 8.0 | 0.00 | 0.00 | 0.00 | 74 | 1017.3 |
| 20260902234703 | 82 | 294 | 2.0 | 8.0 | 0.00 | 0.00 | 0.00 | 74 | 1017.3 |
| 20260902234603 | 82 | 295 | 2.0 | 8.0 | 0.00 | 0.00 | 0.00 | 74 | 1017.3 |
| 20260902234503 | 82 | 295 | 2.0 | 8.0 | 0.00 | 0.00 | 0.00 | 74 | 1017.3 |
| 20260902234403 | 82 | 297 | 3.0 | 8.0 | 0.00 | 0.00 | 0.00 | 74 | 1017.4 |
| 20260902234303 | 82 | 299 | 2.0 | 8.0 | 0.00 | 0.00 | 0.00 | 74 | 1017.3 |
| 20260902234203 | 82 | 301 | 3.0 | 8.0 | 0.00 | 0.00 | 0.00 | 74 | 1017.2 |
| 20260902234103 | 82 | 301 | 3.0 | 8.0 | 0.00 | 0.00 | 0.00 | 74 | 1017.3 |
| 20260902234003 | 82 | 299 | 3.0 | 9.0 | 0.00 | 0.00 | 0.00 | 74 | 1017.3 |
| 20260902233903 | 82 | 300 | 3.0 | 11.0 | 0.00 | 0.00 | 0.00 | 74 | 1017.2 |
| 20260902233803 | 82 | 301 | 4.0 | 11.0 | 0.00 | 0.00 | 0.00 | 74 | 1017.2 |
| 20260902233703 | 82 | 300 | 4.0 | 11.0 | 0.00 | 0.00 | 0.00 | 74 | 1017.3 |
| 20260902233603 | 82 | 300 | 4.0 | 11.0 | 0.00 | 0.00 | 0.00 | 74 | 1017.2 |
| 20260902233503 | 82 | 300 | 4.0 | 11.0 | 0.00 | 0.00 | 0.00 | 74 | 1017.3 |
| 20260902233403 | 82 | 300 | 4.0 | 11.0 | 0.00 | 0.00 | 0.00 | 74 | 1017.2 |
| 20260902233303 | 82 | 301 | 4.0 | 11.0 | 0.00 | 0.00 | 0.00 | 74 | 1017.3 |
| 20260902233203 | 82 | 299 | 4.0 | 11.0 | 0.00 | 0.00 | 0.00 | 74 | 1017.3 |
| 20260902233103 | 82 | 299 | 3.0 | 11.0 | 0.00 | 0.00 | 0.00 | 74 | 1017.3 |
| 20260902233003 | 82 | 299 | 3.0 | 11.0 | 0.00 | 0.00 | 0.00 | 74 | 1017.3 |
| 20260902232903 | 82 | 298 | 3.0 | 8.0 | 0.00 | 0.00 | 0.00 | 74 | 1017.2 |
| 20260902232803 | 82 | 298 | 3.0 | 11.0 | 0.00 | 0.00 | 0.00 | 74 | 1017.3 |
| 20260902232703 | 82 | 297 | 4.0 | 11.0 | 0.00 | 0.00 | 0.00 | 74 | 1017.2 |
| 20260902232603 | 82 | 297 | 4.0 | 11.0 | 0.00 | 0.00 | 0.00 | 74 | 1017.1 |
| 20260902232503 | 82 | 296 | 4.0 | 11.0 | 0.00 | 0.00 | 0.00 | 74 | 1017.2 |
| 20260902232403 | 82 | 296 | 4.0 | 11.0 | 0.00 | 0.00 | 0.00 | 74 | 1017.3 |
| 20260902232306 | 82 | 294 | 4.0 | 11.0 | 0.00 | 0.00 | 0.00 | 74 | 1017.4 |
| 20260902232203 | 82 | 295 | 3.0 | 11.0 | 0.00 | 0.00 | 0.00 | 74 | 1017.3 |
| 20260902232103 | 82 | 295 | 4.0 | 11.0 | 0.00 | 0.00 | 0.00 | 74 | 1017.3 |
| 20260902232003 | 82 | 296 | 3.0 | 11.0 | 0.00 | 0.00 | 0.00 | 74 | 1017.2 |
| 20260902231903 | 82 | 296 | 3.0 | 11.0 | 0.00 | 0.00 | 0.00 | 74 | 1017.3 |
| 20260902231803 | 82 | 295 | 3.0 | 10.0 | 0.00 | 0.00 | 0.00 | 73 | 1017.3 |
| 20260902231703 | 82 | 296 | 2.0 | 9.0 | 0.00 | 0.00 | 0.00 | 73 | 1017.1 |
| 20260902231603 | 82 | 292 | 1.0 | 9.0 | 0.00 | 0.00 | 0.00 | 73 | 1017.2 |
| 20260902231503 | 82 | 299 | 1.0 | 6.0 | 0.00 | 0.00 | 0.00 | 73 | 1017.3 |
| 20260902231403 | 82 | 306 | 1.0 | 6.0 | 0.00 | 0.00 | 0.00 | 73 | 1017.2 |
| 20260902231303 | 82 | 305 | 1.0 | 6.0 | 0.00 | 0.00 | 0.00 | 73 | 1017.2 |
| 20260902231203 | 82 | 303 | 1.0 | 6.0 | 0.00 | 0.00 | 0.00 | 73 | 1017.2 |
| 20260902231003 | 82 | 299 | 1.0 | 8.0 | 0.00 | 0.00 | 0.00 | 73 | 1017.1 |
| 20260902230903 | 82 | 301 | 1.0 | 6.0 | 0.00 | 0.00 | 0.00 | 73 | 1017.2 |
| 20260902230803 | 82 | 300 | 1.0 | 6.0 | 0.00 | 0.00 | 0.00 | 73 | 1017.2 |
| 20260902230703 | 82 | 301 | 1.0 | 6.0 | 0.00 | 0.00 | 0.00 | 73 | 1017.2 |
| 20260902230603 | 82 | 301 | 1.0 | 6.0 | 0.00 | 0.00 | 0.00 | 73 | 1017.3 |
| 20260902230503 | 82 | 303 | 1.0 | 6.0 | 0.00 | 0.00 | 0.00 | 73 | 1017.3 |
| 20260902230403 | 82 | 308 | 1.0 | 5.0 | 0.00 | 0.00 | 0.00 | 72 | 1017.3 |
| 20260902230303 | 82 | 307 | 1.0 | 5.0 | 0.00 | 0.00 | 0.00 | 72 | 1017.3 |
| 20260902230203 | 82 | 307 | 1.0 | 5.0 | 0.00 | 0.00 | 0.00 | 72 | 1017.4 |
| 20260902230003 | 82 | 304 | 1.0 | 5.0 | 0.00 | 0.00 | 0.00 | 72 | 1017.3 |
| 20260902225903 | 82 | 303 | 1.0 | 5.0 | 0.00 | 0.00 | 0.00 | 72 | 1017.3 |
| 20260902225803 | 82 | 303 | 1.0 | 5.0 | 0.00 | 0.00 | 0.00 | 72 | 1017.2 |
| 20260902225703 | 82 | 303 | 1.0 | 5.0 | 0.00 | 0.00 | 0.00 | 72 | 1017.2 |
| 20260902225603 | 82 | 304 | 1.0 | 5.0 | 0.00 | 0.00 | 0.00 | 72 | 1017.3 |
| 20260902225503 | 82 | 301 | 1.0 | 5.0 | 0.00 | 0.00 | 0.00 | 72 | 1017.3 |
| 20260902225403 | 82 | 297 | 0.0 | 5.0 | 0.00 | 0.00 | 0.00 | 72 | 1017.3 |
| 20260902225306 | 82 | 302 | 0.0 | 2.0 | 0.00 | 0.00 | 0.00 | 72 | 1017.4 |
| 20260902225203 | 82 | 301 | 0.0 | 2.0 | 0.00 | 0.00 | 0.00 | 72 | 1017.4 |
| 20260902225103 | 82 | 301 | 0.0 | 2.0 | 0.00 | 0.00 | 0.00 | 72 | 1017.4 |
| 20260902225003 | 82 | 298 | 0.0 | 5.0 | 0.00 | 0.00 | 0.00 | 72 | 1017.4 |
| 20260902224903 | 82 | 297 | 1.0 | 6.0 | 0.00 | 0.00 | 0.00 | 72 | 1017.4 |
| 20260902224803 | 82 | 296 | 1.0 | 6.0 | 0.00 | 0.00 | 0.00 | 72 | 1017.4 |
| 20260902224703 | 82 | 299 | 1.0 | 6.0 | 0.00 | 0.00 | 0.00 | 72 | 1017.5 |
| 20260902224603 | 82 | 299 | 1.0 | 6.0 | 0.00 | 0.00 | 0.00 | 72 | 1017.5 |
| 20260902224503 | 82 | 299 | 1.0 | 6.0 | 0.00 | 0.00 | 0.00 | 73 | 1017.5 |
| 20260902224403 | 82 | 299 | 1.0 | 6.0 | 0.00 | 0.00 | 0.00 | 73 | 1017.5 |
| 20260902224303 | 82 | 297 | 2.0 | 6.0 | 0.00 | 0.00 | 0.00 | 73 | 1017.5 |
| 20260902224203 | 82 | 298 | 2.0 | 7.0 | 0.00 | 0.00 | 0.00 | 72 | 1017.4 |
| 20260902224103 | 82 | 298 | 2.0 | 8.0 | 0.00 | 0.00 | 0.00 | 73 | 1017.5 |
| 20260902224003 | 82 | 298 | 3.0 | 8.0 | 0.00 | 0.00 | 0.00 | 73 | 1017.5 |
| 20260902223903 | 82 | 299 | 3.0 | 8.0 | 0.00 | 0.00 | 0.00 | 73 | 1017.5 |
| 20260902223803 | 82 | 299 | 2.0 | 8.0 | 0.00 | 0.00 | 0.00 | 73 | 1017.6 |
| 20260902223703 | 82 | 298 | 2.0 | 8.0 | 0.00 | 0.00 | 0.00 | 73 | 1017.5 |
| 20260902223603 | 82 | 301 | 2.0 | 10.0 | 0.00 | 0.00 | 0.00 | 73 | 1017.5 |
| 20260902223503 | 82 | 301 | 2.0 | 10.0 | 0.00 | 0.00 | 0.00 | 73 | 1017.5 |
| 20260902223403 | 82 | 301 | 2.0 | 10.0 | 0.00 | 0.00 | 0.00 | 73 | 1017.5 |
| 20260902223303 | 82 | 303 | 2.0 | 10.0 | 0.00 | 0.00 | 0.00 | 73 | 1017.4 |
| 20260902223203 | 82 | 302 | 2.0 | 10.0 | 0.00 | 0.00 | 0.00 | 73 | 1017.5 |
| 20260902223103 | 82 | 304 | 2.0 | 10.0 | 0.00 | 0.00 | 0.00 | 73 | 1017.5 |
| 20260902223003 | 82 | 304 | 1.0 | 10.0 | 0.00 | 0.00 | 0.00 | 73 | 1017.4 |
| 20260902222903 | 82 | 304 | 1.0 | 10.0 | 0.00 | 0.00 | 0.00 | 73 | 1017.4 |
| 20260902222803 | 82 | 303 | 1.0 | 10.0 | 0.00 | 0.00 | 0.00 | 73 | 1017.3 |
| 20260902222703 | 82 | 301 | 2.0 | 10.0 | 0.00 | 0.00 | 0.00 | 73 | 1017.4 |
| 20260902222603 | 82 | 298 | 2.0 | 6.0 | 0.00 | 0.00 | 0.00 | 73 | 1017.4 |
| 20260902222503 | 82 | 299 | 2.0 | 7.0 | 0.00 | 0.00 | 0.00 | 73 | 1017.4 |
| 20260902222403 | 82 | 299 | 2.0 | 7.0 | 0.00 | 0.00 | 0.00 | 73 | 1017.4 |
| 20260902222305 | 82 | 296 | 2.0 | 7.0 | 0.00 | 0.00 | 0.00 | 73 | 1017.4 |
| 20260902222203 | 82 | 296 | 3.0 | 7.0 | 0.00 | 0.00 | 0.00 | 73 | 1017.4 |
| 20260902222104 | 82 | 296 | 2.0 | 7.0 | 0.00 | 0.00 | 0.00 | 73 | 1017.3 |
| 20260902222004 | 82 | 295 | 3.0 | 7.0 | 0.00 | 0.00 | 0.00 | 73 | 1017.4 |
| 20260902221904 | 82 | 296 | 2.0 | 7.0 | 0.00 | 0.00 | 0.00 | 73 | 1017.4 |
| 20260902221804 | 82 | 296 | 3.0 | 7.0 | 0.00 | 0.00 | 0.00 | 73 | 1017.4 |
| 20260902221704 | 82 | 297 | 2.0 | 7.0 | 0.00 | 0.00 | 0.00 | 73 | 1017.5 |
| 20260902221604 | 82 | 297 | 2.0 | 7.0 | 0.00 | 0.00 | 0.00 | 73 | 1017.5 |
| 20260902221504 | 82 | 296 | 2.0 | 7.0 | 0.00 | 0.00 | 0.00 | 73 | 1017.4 |
| 20260902221404 | 82 | 296 | 2.0 | 7.0 | 0.00 | 0.00 | 0.00 | 73 | 1017.5 |
| 20260902221304 | 82 | 299 | 2.0 | 7.0 | 0.00 | 0.00 | 0.00 | 73 | 1017.4 |
| 20260902221204 | 82 | 299 | 2.0 | 7.0 | 0.00 | 0.00 | 0.00 | 73 | 1017.4 |
| 20260902221104 | 82 | 299 | 2.0 | 7.0 | 0.00 | 0.00 | 0.00 | 73 | 1017.5 |
| 20260902221004 | 82 | 301 | 2.0 | 7.0 | 0.00 | 0.00 | 0.00 | 73 | 1017.5 |
| 20260902220904 | 82 | 301 | 2.0 | 10.0 | 0.00 | 0.00 | 0.00 | 73 | 1017.5 |
| 20260902220804 | 82 | 302 | 2.0 | 10.0 | 0.00 | 0.00 | 0.00 | 73 | 1017.5 |
| 20260902220704 | 82 | 301 | 2.0 | 10.0 | 0.00 | 0.00 | 0.00 | 73 | 1017.5 |
| 20260902220604 | 82 | 300 | 2.0 | 10.0 | 0.00 | 0.00 | 0.00 | 73 | 1017.5 |
| 20260902220504 | 82 | 299 | 2.0 | 10.0 | 0.00 | 0.00 | 0.00 | 73 | 1017.5 |
| 20260902220404 | 82 | 299 | 2.0 | 10.0 | 0.00 | 0.00 | 0.00 | 73 | 1017.6 |
| 20260902220304 | 82 | 299 | 2.0 | 10.0 | 0.00 | 0.00 | 0.00 | 73 | 1017.5 |
| 20260902220204 | 82 | 297 | 3.0 | 11.0 | 0.00 | 0.00 | 0.00 | 73 | 1017.5 |
| 20260902220104 | 82 | 296 | 3.0 | 11.0 | 0.00 | 0.00 | 0.00 | 73 | 1017.5 |
| 20260902215905 | 82 | 295 | 3.0 | 11.0 | 0.00 | 0.00 | 0.00 | 73 | 1017.5 |
| 20260902215804 | 82 | 295 | 3.0 | 11.0 | 0.00 | 0.00 | 0.00 | 73 | 1017.5 |
| 20260902215704 | 82 | 296 | 3.0 | 11.0 | 0.00 | 0.00 | 0.00 | 72 | 1017.6 |
| 20260902215604 | 82 | 296 | 3.0 | 11.0 | 0.00 | 0.00 | 0.00 | 72 | 1017.6 |
| 20260902215504 | 82 | 297 | 3.0 | 11.0 | 0.00 | 0.00 | 0.00 | 72 | 1017.5 |
| 20260902215404 | 82 | 298 | 3.0 | 11.0 | 0.00 | 0.00 | 0.00 | 72 | 1017.5 |
| 20260902215306 | 82 | 297 | 4.0 | 11.0 | 0.00 | 0.00 | 0.00 | 72 | 1017.5 |
| 20260902215204 | 82 | 299 | 3.0 | 9.0 | 0.00 | 0.00 | 0.00 | 72 | 1017.5 |
| 20260902215104 | 82 | 299 | 3.0 | 9.0 | 0.00 | 0.00 | 0.00 | 72 | 1017.5 |
| 20260902215004 | 82 | 300 | 2.0 | 9.0 | 0.00 | 0.00 | 0.00 | 72 | 1017.5 |
| 20260902214904 | 82 | 299 | 2.0 | 9.0 | 0.00 | 0.00 | 0.00 | 72 | 1017.6 |
| 20260902214804 | 82 | 299 | 2.0 | 8.0 | 0.00 | 0.00 | 0.00 | 72 | 1017.6 |
| 20260902214704 | 82 | 298 | 2.0 | 8.0 | 0.00 | 0.00 | 0.00 | 72 | 1017.6 |
| 20260902214604 | 82 | 297 | 2.0 | 8.0 | 0.00 | 0.00 | 0.00 | 72 | 1017.6 |
| 20260902214504 | 82 | 297 | 2.0 | 9.0 | 0.00 | 0.00 | 0.00 | 72 | 1017.6 |
| 20260902214404 | 82 | 298 | 3.0 | 9.0 | 0.00 | 0.00 | 0.00 | 72 | 1017.6 |
| 20260902214304 | 82 | 298 | 3.0 | 9.0 | 0.00 | 0.00 | 0.00 | 72 | 1017.6 |
| 20260902214204 | 82 | 298 | 3.0 | 9.0 | 0.00 | 0.00 | 0.00 | 71 | 1017.6 |
| 20260902214104 | 82 | 298 | 3.0 | 9.0 | 0.00 | 0.00 | 0.00 | 71 | 1017.7 |
| 20260902214003 | 82 | 298 | 3.0 | 9.0 | 0.00 | 0.00 | 0.00 | 71 | 1017.8 |
| 20260902213904 | 82 | 298 | 3.0 | 9.0 | 0.00 | 0.00 | 0.00 | 71 | 1017.8 |
| 20260902213804 | 82 | 299 | 4.0 | 9.0 | 0.00 | 0.00 | 0.00 | 71 | 1017.7 |
| 20260902213704 | 82 | 300 | 3.0 | 9.0 | 0.00 | 0.00 | 0.00 | 71 | 1017.6 |
| 20260902213603 | 82 | 301 | 3.0 | 9.0 | 0.00 | 0.00 | 0.00 | 71 | 1017.7 |
| 20260902213504 | 82 | 301 | 3.0 | 9.0 | 0.00 | 0.00 | 0.00 | 71 | 1017.7 |
| 20260902213404 | 82 | 299 | 3.0 | 9.0 | 0.00 | 0.00 | 0.00 | 71 | 1017.7 |
| 20260902213303 | 82 | 302 | 3.0 | 9.0 | 0.00 | 0.00 | 0.00 | 71 | 1017.7 |
| 20260902213203 | 82 | 302 | 3.0 | 11.0 | 0.00 | 0.00 | 0.00 | 71 | 1017.7 |
| 20260902213103 | 82 | 302 | 3.0 | 11.0 | 0.00 | 0.00 | 0.00 | 71 | 1017.7 |
| 20260902213003 | 83 | 301 | 3.0 | 11.0 | 0.00 | 0.00 | 0.00 | 71 | 1017.7 |
| 20260902212903 | 82 | 302 | 3.0 | 11.0 | 0.00 | 0.00 | 0.00 | 71 | 1017.7 |
| 20260902212803 | 82 | 302 | 3.0 | 11.0 | 0.00 | 0.00 | 0.00 | 71 | 1017.7 |
| 20260902212703 | 82 | 302 | 3.0 | 11.0 | 0.00 | 0.00 | 0.00 | 71 | 1017.7 |
| 20260902212603 | 82 | 301 | 4.0 | 11.0 | 0.00 | 0.00 | 0.00 | 71 | 1017.7 |
| 20260902212503 | 82 | 301 | 4.0 | 11.0 | 0.00 | 0.00 | 0.00 | 71 | 1017.6 |
| 20260902212403 | 82 | 302 | 4.0 | 11.0 | 0.00 | 0.00 | 0.00 | 71 | 1017.7 |
| 20260902212305 | 82 | 300 | 4.0 | 11.0 | 0.00 | 0.00 | 0.00 | 71 | 1017.8 |
| 20260902212203 | 82 | 301 | 4.0 | 9.0 | 0.00 | 0.00 | 0.00 | 71 | 1017.6 |
| 20260902212103 | 82 | 301 | 3.0 | 9.0 | 0.00 | 0.00 | 0.00 | 71 | 1017.6 |
| 20260902212003 | 82 | 300 | 4.0 | 9.0 | 0.00 | 0.00 | 0.00 | 71 | 1017.6 |
| 20260902211903 | 82 | 300 | 4.0 | 9.0 | 0.00 | 0.00 | 0.00 | 71 | 1017.6 |
| 20260902211803 | 83 | 301 | 3.0 | 9.0 | 0.00 | 0.00 | 0.00 | 71 | 1017.6 |
| 20260902211703 | 83 | 301 | 3.0 | 9.0 | 0.00 | 0.00 | 0.00 | 71 | 1017.5 |
| 20260902211603 | 82 | 302 | 3.0 | 7.0 | 0.00 | 0.00 | 0.00 | 71 | 1017.5 |
| 20260902211503 | 83 | 302 | 3.0 | 7.0 | 0.00 | 0.00 | 0.00 | 71 | 1017.6 |
| 20260902211403 | 82 | 301 | 3.0 | 6.0 | 0.00 | 0.00 | 0.00 | 71 | 1017.4 |
| 20260902211303 | 82 | 300 | 3.0 | 6.0 | 0.00 | 0.00 | 0.00 | 71 | 1017.5 |
| 20260902211203 | 82 | 302 | 3.0 | 7.0 | 0.00 | 0.00 | 0.00 | 71 | 1017.5 |
| 20260902211103 | 82 | 301 | 3.0 | 7.0 | 0.00 | 0.00 | 0.00 | 71 | 1017.5 |
| 20260902211003 | 83 | 303 | 3.0 | 7.0 | 0.00 | 0.00 | 0.00 | 71 | 1017.5 |
| 20260902210903 | 82 | 305 | 3.0 | 7.0 | 0.00 | 0.00 | 0.00 | 71 | 1017.4 |
| 20260902210803 | 82 | 304 | 3.0 | 7.0 | 0.00 | 0.00 | 0.00 | 71 | 1017.5 |
| 20260902210703 | 83 | 303 | 3.0 | 7.0 | 0.00 | 0.00 | 0.00 | 71 | 1017.5 |
| 20260902210603 | 83 | 302 | 3.0 | 7.0 | 0.00 | 0.00 | 0.00 | 71 | 1017.5 |
| 20260902210503 | 83 | 301 | 4.0 | 7.0 | 0.00 | 0.00 | 0.00 | 71 | 1017.6 |
| 20260902210403 | 83 | 301 | 4.0 | 7.0 | 0.00 | 0.00 | 0.00 | 71 | 1017.5 |
| 20260902210303 | 83 | 301 | 4.0 | 7.0 | 0.00 | 0.00 | 0.00 | 71 | 1017.5 |
| 20260902210203 | 83 | 300 | 3.0 | 7.0 | 0.00 | 0.00 | 0.00 | 71 | 1017.6 |
| 20260902210103 | 83 | 301 | 3.0 | 7.0 | 0.00 | 0.00 | 0.00 | 71 | 1017.5 |
| 20260902210003 | 83 | 300 | 4.0 | 7.0 | 0.00 | 0.00 | 0.00 | 70 | 1017.5 |
| 20260902205903 | 83 | 298 | 4.0 | 7.0 | 0.00 | 0.00 | 0.00 | 71 | 1017.6 |
| 20260902205803 | 83 | 299 | 4.0 | 7.0 | 0.00 | 0.00 | 0.00 | 70 | 1017.6 |
| 20260902205703 | 83 | 298 | 4.0 | 7.0 | 0.00 | 0.00 | 0.00 | 71 | 1017.6 |
| 20260902205603 | 83 | 299 | 3.0 | 7.0 | 0.00 | 0.00 | 0.00 | 70 | 1017.5 |
| 20260902205503 | 83 | 299 | 3.0 | 7.0 | 0.00 | 0.00 | 0.00 | 70 | 1017.5 |
| 20260902205403 | 83 | 299 | 3.0 | 7.0 | 0.00 | 0.00 | 0.00 | 70 | 1017.5 |
| 20260902205306 | 83 | 298 | 3.0 | 7.0 | 0.00 | 0.00 | 0.00 | 70 | 1017.6 |
| 20260902205203 | 83 | 299 | 3.0 | 7.0 | 0.00 | 0.00 | 0.00 | 70 | 1017.6 |
| 20260902205103 | 83 | 297 | 3.0 | 7.0 | 0.00 | 0.00 | 0.00 | 70 | 1017.7 |
| 20260902205003 | 83 | 297 | 3.0 | 7.0 | 0.00 | 0.00 | 0.00 | 70 | 1017.7 |
| 20260902204903 | 83 | 298 | 3.0 | 7.0 | 0.00 | 0.00 | 0.00 | 70 | 1017.8 |
| 20260902204803 | 83 | 296 | 3.0 | 7.0 | 0.00 | 0.00 | 0.00 | 70 | 1017.8 |
| 20260902204703 | 83 | 296 | 3.0 | 7.0 | 0.00 | 0.00 | 0.00 | 70 | 1017.8 |
| 20260902204603 | 83 | 297 | 3.0 | 7.0 | 0.00 | 0.00 | 0.00 | 70 | 1017.7 |
| 20260902204504 | 83 | 296 | 3.0 | 7.0 | 0.00 | 0.00 | 0.00 | 70 | 1017.7 |
| 20260902204403 | 83 | 298 | 3.0 | 7.0 | 0.00 | 0.00 | 0.00 | 70 | 1017.6 |
| 20260902204303 | 83 | 299 | 3.0 | 7.0 | 0.00 | 0.00 | 0.00 | 70 | 1017.8 |
| 20260902204203 | 83 | 299 | 3.0 | 7.0 | 0.00 | 0.00 | 0.00 | 70 | 1017.8 |
| 20260902204103 | 83 | 299 | 4.0 | 7.0 | 0.00 | 0.00 | 0.00 | 70 | 1017.8 |
| 20260902204003 | 83 | 299 | 3.0 | 7.0 | 0.00 | 0.00 | 0.00 | 70 | 1017.7 |
| 20260902203903 | 83 | 298 | 3.0 | 7.0 | 0.00 | 0.00 | 0.00 | 70 | 1017.7 |
| 20260902203803 | 83 | 299 | 3.0 | 7.0 | 0.00 | 0.00 | 0.00 | 70 | 1017.7 |
| 20260902203703 | 83 | 300 | 3.0 | 7.0 | 0.00 | 0.00 | 0.00 | 70 | 1017.7 |
| 20260902203603 | 83 | 299 | 3.0 | 7.0 | 0.00 | 0.00 | 0.00 | 70 | 1017.7 |
| 20260902203503 | 83 | 299 | 3.0 | 7.0 | 0.00 | 0.00 | 0.00 | 70 | 1017.8 |
| 20260902203403 | 83 | 298 | 3.0 | 6.0 | 0.00 | 0.00 | 0.00 | 70 | 1017.7 |
| 20260902203303 | 83 | 297 | 3.0 | 6.0 | 0.00 | 0.00 | 0.00 | 70 | 1017.8 |
| 20260902203203 | 83 | 298 | 2.0 | 6.0 | 0.00 | 0.00 | 0.00 | 70 | 1017.8 |
| 20260902203103 | 83 | 298 | 2.0 | 6.0 | 0.00 | 0.00 | 0.00 | 70 | 1017.7 |
| 20260902203003 | 83 | 298 | 2.0 | 7.0 | 0.00 | 0.00 | 0.00 | 70 | 1017.8 |
| 20260902202903 | 83 | 297 | 2.0 | 7.0 | 0.00 | 0.00 | 0.00 | 70 | 1017.8 |
| 20260902202803 | 83 | 297 | 2.0 | 7.0 | 0.00 | 0.00 | 0.00 | 70 | 1017.8 |
| 20260902202703 | 83 | 297 | 2.0 | 7.0 | 0.00 | 0.00 | 0.00 | 70 | 1017.9 |
| 20260902202603 | 83 | 296 | 2.0 | 7.0 | 0.00 | 0.00 | 0.00 | 70 | 1017.9 |
| 20260902202503 | 83 | 296 | 2.0 | 7.0 | 0.00 | 0.00 | 0.00 | 70 | 1017.9 |
| 20260902202403 | 83 | 296 | 2.0 | 7.0 | 0.00 | 0.00 | 0.00 | 70 | 1017.7 |
| 20260902202306 | 83 | 296 | 2.0 | 7.0 | 0.00 | 0.00 | 0.00 | 70 | 1017.8 |
| 20260902202203 | 83 | 295 | 3.0 | 7.0 | 0.00 | 0.00 | 0.00 | 70 | 1017.9 |
| 20260902202103 | 83 | 294 | 3.0 | 7.0 | 0.00 | 0.00 | 0.00 | 70 | 1017.8 |
| 20260902202003 | 83 | 294 | 3.0 | 7.0 | 0.00 | 0.00 | 0.00 | 71 | 1017.8 |
| 20260902201903 | 83 | 294 | 3.0 | 7.0 | 0.00 | 0.00 | 0.00 | 71 | 1017.8 |
| 20260902201803 | 83 | 293 | 3.0 | 6.0 | 0.00 | 0.00 | 0.00 | 71 | 1017.8 |
| 20260902201703 | 83 | 293 | 3.0 | 6.0 | 0.00 | 0.00 | 0.00 | 71 | 1017.9 |
| 20260902201603 | 83 | 294 | 3.0 | 7.0 | 0.00 | 0.00 | 0.00 | 71 | 1017.9 |
| 20260902201503 | 83 | 294 | 3.0 | 7.0 | 0.00 | 0.00 | 0.00 | 71 | 1017.8 |
| 20260902201403 | 83 | 295 | 3.0 | 7.0 | 0.00 | 0.00 | 0.00 | 71 | 1017.9 |
| 20260902201303 | 83 | 295 | 3.0 | 7.0 | 0.00 | 0.00 | 0.00 | 71 | 1017.8 |
| 20260902201203 | 83 | 296 | 3.0 | 7.0 | 0.00 | 0.00 | 0.00 | 71 | 1017.9 |
| 20260902201103 | 83 | 296 | 2.0 | 7.0 | 0.00 | 0.00 | 0.00 | 71 | 1017.8 |
| 20260902201003 | 83 | 297 | 2.0 | 7.0 | 0.00 | 0.00 | 0.00 | 71 | 1017.9 |
| 20260902200903 | 83 | 297 | 2.0 | 7.0 | 0.00 | 0.00 | 0.00 | 71 | 1017.9 |
| 20260902200803 | 83 | 297 | 2.0 | 7.0 | 0.00 | 0.00 | 0.00 | 71 | 1017.9 |
| 20260902200703 | 83 | 296 | 2.0 | 7.0 | 0.00 | 0.00 | 0.00 | 71 | 1017.9 |
| 20260902200604 | 83 | 296 | 2.0 | 7.0 | 0.00 | 0.00 | 0.00 | 71 | 1017.9 |
| 20260902200504 | 83 | 295 | 2.0 | 7.0 | 0.00 | 0.00 | 0.00 | 71 | 1017.9 |
| 20260902200404 | 83 | 295 | 2.0 | 7.0 | 0.00 | 0.00 | 0.00 | 71 | 1018.0 |
| 20260902200304 | 83 | 295 | 3.0 | 7.0 | 0.00 | 0.00 | 0.00 | 71 | 1017.9 |
| 20260902200204 | 83 | 296 | 3.0 | 7.0 | 0.00 | 0.00 | 0.00 | 71 | 1017.9 |
| 20260902200104 | 83 | 296 | 3.0 | 7.0 | 0.00 | 0.00 | 0.00 | 71 | 1017.9 |
| 20260902200004 | 83 | 297 | 3.0 | 7.0 | 0.00 | 0.00 | 0.00 | 71 | 1017.8 |
| 20260902195904 | 83 | 297 | 3.0 | 7.0 | 0.00 | 0.00 | 0.00 | 71 | 1017.9 |
| 20260902195804 | 83 | 297 | 3.0 | 7.0 | 0.00 | 0.00 | 0.00 | 71 | 1018.1 |
| 20260902195704 | 83 | 299 | 3.0 | 7.0 | 0.00 | 0.00 | 0.00 | 71 | 1018.0 |
| 20260902195604 | 83 | 299 | 3.0 | 8.0 | 0.00 | 0.00 | 0.00 | 71 | 1017.9 |
| 20260902195504 | 83 | 300 | 4.0 | 8.0 | 0.00 | 0.00 | 0.00 | 71 | 1017.9 |
| 20260902195404 | 83 | 301 | 4.0 | 8.0 | 0.00 | 0.00 | 0.00 | 71 | 1017.9 |
| 20260902195306 | 83 | 300 | 4.0 | 8.0 | 0.00 | 0.00 | 0.00 | 71 | 1017.9 |
| 20260902195204 | 83 | 300 | 4.0 | 8.0 | 0.00 | 0.00 | 0.00 | 71 | 1017.9 |
| 20260902195104 | 83 | 300 | 3.0 | 8.0 | 0.00 | 0.00 | 0.00 | 71 | 1017.9 |
| 20260902195004 | 83 | 300 | 3.0 | 8.0 | 0.00 | 0.00 | 0.00 | 71 | 1018.0 |
| 20260902194904 | 83 | 301 | 3.0 | 8.0 | 0.00 | 0.00 | 0.00 | 71 | 1018.0 |
| 20260902194804 | 83 | 300 | 4.0 | 8.0 | 0.00 | 0.00 | 0.00 | 71 | 1018.1 |
| 20260902194704 | 83 | 299 | 3.0 | 8.0 | 0.00 | 0.00 | 0.00 | 71 | 1018.1 |
| 20260902194604 | 83 | 300 | 3.0 | 8.0 | 0.00 | 0.00 | 0.00 | 71 | 1018.1 |
| 20260902194504 | 83 | 299 | 3.0 | 8.0 | 0.00 | 0.00 | 0.00 | 71 | 1018.1 |
| 20260902194404 | 83 | 299 | 3.0 | 8.0 | 0.00 | 0.00 | 0.00 | 71 | 1018.1 |
| 20260902194304 | 83 | 301 | 3.0 | 7.0 | 0.00 | 0.00 | 0.00 | 71 | 1018.0 |
| 20260902194204 | 83 | 300 | 3.0 | 7.0 | 0.00 | 0.00 | 0.00 | 71 | 1018.0 |
| 20260902194104 | 83 | 300 | 3.0 | 7.0 | 0.00 | 0.00 | 0.00 | 71 | 1018.0 |
| 20260902194004 | 83 | 299 | 4.0 | 7.0 | 0.00 | 0.00 | 0.00 | 71 | 1017.9 |
| 20260902193904 | 83 | 300 | 4.0 | 7.0 | 0.00 | 0.00 | 0.00 | 71 | 1017.9 |
| 20260902193804 | 83 | 300 | 4.0 | 7.0 | 0.00 | 0.00 | 0.00 | 71 | 1018.0 |
| 20260902193704 | 83 | 301 | 4.0 | 7.0 | 0.00 | 0.00 | 0.00 | 71 | 1018.0 |
| 20260902193604 | 83 | 301 | 4.0 | 7.0 | 0.00 | 0.00 | 0.00 | 71 | 1017.9 |
| 20260902193504 | 83 | 301 | 4.0 | 7.0 | 0.00 | 0.00 | 0.00 | 71 | 1017.9 |
| 20260902193404 | 83 | 300 | 3.0 | 7.0 | 0.00 | 0.00 | 0.00 | 71 | 1017.9 |
| 20260902193304 | 83 | 299 | 3.0 | 7.0 | 0.00 | 0.00 | 0.00 | 71 | 1017.9 |
| 20260902193203 | 83 | 300 | 3.0 | 7.0 | 0.00 | 0.00 | 0.00 | 71 | 1018.0 |
| 20260902193104 | 83 | 299 | 3.0 | 7.0 | 0.00 | 0.00 | 0.00 | 71 | 1018.0 |
| 20260902193004 | 83 | 300 | 3.0 | 7.0 | 0.00 | 0.00 | 0.00 | 71 | 1017.9 |
| 20260902192903 | 83 | 299 | 3.0 | 7.0 | 0.00 | 0.00 | 0.00 | 71 | 1017.9 |
| 20260902192803 | 83 | 299 | 3.0 | 7.0 | 0.00 | 0.00 | 0.00 | 71 | 1017.8 |
| 20260902192703 | 83 | 297 | 4.0 | 7.0 | 0.00 | 0.00 | 0.00 | 71 | 1017.9 |
| 20260902192604 | 83 | 297 | 4.0 | 8.0 | 0.00 | 0.00 | 0.00 | 71 | 1017.8 |
| 20260902192503 | 83 | 298 | 4.0 | 8.0 | 0.00 | 0.00 | 0.00 | 71 | 1017.8 |
| 20260902192403 | 83 | 298 | 4.0 | 8.0 | 0.00 | 0.00 | 0.00 | 71 | 1017.9 |
| 20260902192306 | 83 | 298 | 4.0 | 8.0 | 0.00 | 0.00 | 0.00 | 71 | 1017.9 |
| 20260902192203 | 83 | 297 | 4.0 | 8.0 | 0.00 | 0.00 | 0.00 | 71 | 1017.9 |
| 20260902192103 | 83 | 298 | 4.0 | 8.0 | 0.00 | 0.00 | 0.00 | 71 | 1017.9 |
| 20260902192005 | 83 | 298 | 4.0 | 8.0 | 0.00 | 0.00 | 0.00 | 71 | 1017.9 |
| 20260902191903 | 83 | 299 | 4.0 | 8.0 | 0.00 | 0.00 | 0.00 | 71 | 1018.0 |
| 20260902191803 | 83 | 298 | 4.0 | 9.0 | 0.00 | 0.00 | 0.00 | 71 | 1017.9 |
| 20260902191703 | 83 | 299 | 4.0 | 9.0 | 0.00 | 0.00 | 0.00 | 71 | 1018.0 |
| 20260902191603 | 83 | 299 | 4.0 | 9.0 | 0.00 | 0.00 | 0.00 | 71 | 1018.0 |
| 20260902191503 | 83 | 299 | 4.0 | 9.0 | 0.00 | 0.00 | 0.00 | 71 | 1017.9 |
| 20260902191403 | 83 | 299 | 4.0 | 9.0 | 0.00 | 0.00 | 0.00 | 71 | 1017.9 |
| 20260902191303 | 83 | 299 | 4.0 | 9.0 | 0.00 | 0.00 | 0.00 | 71 | 1018.0 |
| 20260902191203 | 83 | 300 | 4.0 | 9.0 | 0.00 | 0.00 | 0.00 | 71 | 1017.9 |
| 20260902191103 | 83 | 299 | 5.0 | 9.0 | 0.00 | 0.00 | 0.00 | 71 | 1017.9 |
| 20260902191003 | 83 | 299 | 5.0 | 9.0 | 0.00 | 0.00 | 0.00 | 71 | 1018.0 |
| 20260902190903 | 83 | 298 | 4.0 | 9.0 | 0.00 | 0.00 | 0.00 | 71 | 1017.9 |
| 20260902190803 | 83 | 299 | 4.0 | 9.0 | 0.00 | 0.00 | 0.00 | 71 | 1017.8 |
| 20260902190703 | 83 | 299 | 4.0 | 9.0 | 0.00 | 0.00 | 0.00 | 71 | 1017.9 |
| 20260902190603 | 83 | 298 | 4.0 | 8.0 | 0.00 | 0.00 | 0.00 | 71 | 1017.9 |
| 20260902190503 | 83 | 298 | 4.0 | 8.0 | 0.00 | 0.00 | 0.00 | 71 | 1017.9 |
| 20260902190403 | 83 | 299 | 4.0 | 8.0 | 0.00 | 0.00 | 0.00 | 71 | 1017.8 |
| 20260902190303 | 83 | 298 | 4.0 | 8.0 | 0.00 | 0.00 | 0.00 | 71 | 1017.9 |
| 20260902190203 | 83 | 297 | 4.0 | 8.0 | 0.00 | 0.00 | 0.00 | 71 | 1017.9 |
| 20260902190103 | 83 | 299 | 4.0 | 8.0 | 0.00 | 0.00 | 0.00 | 71 | 1017.8 |
| 20260902190003 | 83 | 299 | 4.0 | 8.0 | 0.00 | 0.00 | 0.00 | 71 | 1017.9 |
| 20260902185903 | 83 | 299 | 4.0 | 8.0 | 0.00 | 0.00 | 0.00 | 71 | 1017.9 |
| 20260902185804 | 83 | 299 | 4.0 | 8.0 | 0.00 | 0.00 | 0.00 | 71 | 1017.9 |
| 20260902185703 | 83 | 297 | 4.0 | 8.0 | 0.00 | 0.00 | 0.00 | 71 | 1017.9 |
| 20260902185603 | 83 | 298 | 5.0 | 8.0 | 0.00 | 0.00 | 0.00 | 71 | 1017.8 |
| 20260902185503 | 83 | 298 | 4.0 | 8.0 | 0.00 | 0.00 | 0.00 | 71 | 1017.9 |
| 20260902185403 | 83 | 296 | 4.0 | 8.0 | 0.00 | 0.00 | 0.00 | 71 | 1017.8 |
| 20260902185306 | 83 | 298 | 4.0 | 8.0 | 0.00 | 0.00 | 0.00 | 71 | 1017.8 |
| 20260902185204 | 83 | 298 | 4.0 | 8.0 | 0.00 | 0.00 | 0.00 | 71 | 1017.8 |
| 20260902185103 | 83 | 298 | 4.0 | 8.0 | 0.00 | 0.00 | 0.00 | 71 | 1017.7 |
| 20260902185003 | 83 | 299 | 3.0 | 8.0 | 0.00 | 0.00 | 0.00 | 70 | 1017.8 |
| 20260902184903 | 83 | 300 | 3.0 | 8.0 | 0.00 | 0.00 | 0.00 | 70 | 1017.8 |
| 20260902184803 | 83 | 300 | 3.0 | 8.0 | 0.00 | 0.00 | 0.00 | 70 | 1017.7 |
| 20260902184703 | 83 | 302 | 3.0 | 8.0 | 0.00 | 0.00 | 0.00 | 70 | 1017.6 |
| 20260902184603 | 83 | 302 | 3.0 | 8.0 | 0.00 | 0.00 | 0.00 | 70 | 1017.6 |
| 20260902184503 | 83 | 300 | 3.0 | 8.0 | 0.00 | 0.00 | 0.00 | 70 | 1017.6 |
| 20260902184403 | 83 | 299 | 3.0 | 8.0 | 0.00 | 0.00 | 0.00 | 70 | 1017.8 |
| 20260902184303 | 83 | 297 | 3.0 | 8.0 | 0.00 | 0.00 | 0.00 | 71 | 1017.9 |
| 20260902184203 | 83 | 297 | 3.0 | 8.0 | 0.00 | 0.00 | 0.00 | 70 | 1017.6 |
| 20260902184103 | 83 | 295 | 3.0 | 8.0 | 0.00 | 0.00 | 0.00 | 71 | 1017.6 |
| 20260902184003 | 83 | 294 | 3.0 | 8.0 | 0.00 | 0.00 | 0.00 | 71 | 1017.7 |
| 20260902183903 | 83 | 293 | 3.0 | 8.0 | 0.00 | 0.00 | 0.00 | 71 | 1017.7 |
| 20260902183803 | 83 | 295 | 3.0 | 8.0 | 0.00 | 0.00 | 0.00 | 71 | 1017.6 |
| 20260902183703 | 83 | 294 | 3.0 | 8.0 | 0.00 | 0.00 | 0.00 | 71 | 1017.8 |
| 20260902183603 | 83 | 295 | 3.0 | 8.0 | 0.00 | 0.00 | 0.00 | 71 | 1017.8 |
| 20260902183503 | 83 | 296 | 3.0 | 8.0 | 0.00 | 0.00 | 0.00 | 71 | 1017.7 |
| 20260902183403 | 83 | 295 | 3.0 | 8.0 | 0.00 | 0.00 | 0.00 | 71 | 1017.8 |
| 20260902183303 | 83 | 296 | 3.0 | 8.0 | 0.00 | 0.00 | 0.00 | 71 | 1017.8 |
| 20260902183203 | 83 | 296 | 3.0 | 8.0 | 0.00 | 0.00 | 0.00 | 71 | 1017.7 |
| 20260902183103 | 83 | 296 | 3.0 | 8.0 | 0.00 | 0.00 | 0.00 | 71 | 1017.8 |
| 20260902183003 | 83 | 297 | 3.0 | 8.0 | 0.00 | 0.00 | 0.00 | 71 | 1017.7 |
| 20260902182903 | 83 | 296 | 3.0 | 8.0 | 0.00 | 0.00 | 0.00 | 71 | 1017.7 |
| 20260902182803 | 83 | 295 | 3.0 | 8.0 | 0.00 | 0.00 | 0.00 | 71 | 1017.6 |
| 20260902182703 | 83 | 295 | 3.0 | 7.0 | 0.00 | 0.00 | 0.00 | 71 | 1017.6 |
| 20260902182603 | 83 | 295 | 3.0 | 7.0 | 0.00 | 0.00 | 0.00 | 71 | 1017.6 |
| 20260902182503 | 83 | 295 | 2.0 | 7.0 | 0.00 | 0.00 | 0.00 | 71 | 1017.6 |
| 20260902182403 | 83 | 294 | 2.0 | 7.0 | 0.00 | 0.00 | 0.00 | 71 | 1017.6 |
| 20260902182306 | 83 | 295 | 2.0 | 7.0 | 0.00 | 0.00 | 0.00 | 71 | 1017.6 |
| 20260902182203 | 83 | 296 | 2.0 | 7.0 | 0.00 | 0.00 | 0.00 | 71 | 1017.6 |
| 20260902182103 | 83 | 295 | 2.0 | 6.0 | 0.00 | 0.00 | 0.00 | 71 | 1017.5 |
| 20260902182004 | 83 | 294 | 2.0 | 6.0 | 0.00 | 0.00 | 0.00 | 71 | 1017.4 |
| 20260902181903 | 83 | 295 | 2.0 | 6.0 | 0.00 | 0.00 | 0.00 | 71 | 1017.5 |
| 20260902181803 | 83 | 297 | 3.0 | 6.0 | 0.00 | 0.00 | 0.00 | 71 | 1017.5 |
| 20260902181703 | 83 | 297 | 3.0 | 8.0 | 0.00 | 0.00 | 0.00 | 71 | 1017.4 |
| 20260902181603 | 83 | 297 | 3.0 | 8.0 | 0.00 | 0.00 | 0.00 | 71 | 1017.4 |
| 20260902181503 | 83 | 298 | 3.0 | 8.0 | 0.00 | 0.00 | 0.00 | 71 | 1017.5 |
| 20260902181403 | 83 | 299 | 3.0 | 8.0 | 0.00 | 0.00 | 0.00 | 71 | 1017.5 |
| 20260902181303 | 83 | 298 | 3.0 | 8.0 | 0.00 | 0.00 | 0.00 | 71 | 1017.4 |
| 20260902181203 | 83 | 298 | 4.0 | 8.0 | 0.00 | 0.00 | 0.00 | 71 | 1017.4 |
| 20260902181103 | 83 | 298 | 3.0 | 8.0 | 0.00 | 0.00 | 0.00 | 71 | 1017.4 |
| 20260902181003 | 83 | 299 | 3.0 | 8.0 | 0.00 | 0.00 | 0.00 | 71 | 1017.4 |
| 20260902180903 | 83 | 300 | 3.0 | 8.0 | 0.00 | 0.00 | 0.00 | 71 | 1017.4 |
| 20260902180803 | 83 | 299 | 3.0 | 8.0 | 0.00 | 0.00 | 0.00 | 71 | 1017.4 |
| 20260902180703 | 83 | 300 | 3.0 | 7.0 | 0.00 | 0.00 | 0.00 | 71 | 1017.4 |
| 20260902180603 | 83 | 299 | 4.0 | 9.0 | 0.00 | 0.00 | 0.00 | 70 | 1017.3 |
| 20260902180503 | 83 | 298 | 4.0 | 9.0 | 0.00 | 0.00 | 0.00 | 70 | 1017.3 |
| 20260902180403 | 83 | 299 | 4.0 | 9.0 | 0.00 | 0.00 | 0.00 | 70 | 1017.3 |
| 20260902180303 | 83 | 300 | 4.0 | 9.0 | 0.00 | 0.00 | 0.00 | 70 | 1017.3 |
| 20260902180203 | 83 | 299 | 4.0 | 9.0 | 0.00 | 0.00 | 0.00 | 70 | 1017.2 |
| 20260902180005 | 83 | 299 | 4.0 | 9.0 | 0.00 | 0.00 | 0.00 | 70 | 1017.2 |
| 20260902175903 | 83 | 298 | 4.0 | 9.0 | 0.00 | 0.00 | 0.00 | 70 | 1017.2 |
| 20260902175803 | 83 | 299 | 4.0 | 9.0 | 0.00 | 0.00 | 0.00 | 70 | 1017.1 |
| 20260902175703 | 83 | 298 | 3.0 | 9.0 | 0.00 | 0.00 | 0.00 | 70 | 1017.1 |
| 20260902175603 | 83 | 296 | 4.0 | 9.0 | 0.00 | 0.00 | 0.00 | 70 | 1017.2 |
| 20260902175503 | 83 | 296 | 4.0 | 10.0 | 0.00 | 0.00 | 0.00 | 70 | 1017.2 |
| 20260902175403 | 83 | 295 | 4.0 | 10.0 | 0.00 | 0.00 | 0.00 | 70 | 1017.2 |
| 20260902175307 | 83 | 295 | 4.0 | 10.0 | 0.00 | 0.00 | 0.00 | 70 | 1017.1 |
| 20260902175203 | 83 | 296 | 4.0 | 10.0 | 0.00 | 0.00 | 0.00 | 70 | 1017.1 |
| 20260902175103 | 83 | 296 | 4.0 | 10.0 | 0.00 | 0.00 | 0.00 | 70 | 1017.0 |
| 20260902175003 | 83 | 297 | 4.0 | 10.0 | 0.00 | 0.00 | 0.00 | 70 | 1017.0 |
| 20260902174903 | 84 | 298 | 5.0 | 11.0 | 0.00 | 0.00 | 0.00 | 70 | 1017.0 |
| 20260902174803 | 84 | 299 | 5.0 | 11.0 | 0.00 | 0.00 | 0.00 | 70 | 1017.0 |
| 20260902174703 | 84 | 299 | 5.0 | 11.0 | 0.00 | 0.00 | 0.00 | 70 | 1017.0 |
| 20260902174603 | 84 | 299 | 5.0 | 11.0 | 0.00 | 0.00 | 0.00 | 70 | 1017.0 |
| 20260902174503 | 84 | 300 | 4.0 | 11.0 | 0.00 | 0.00 | 0.00 | 70 | 1017.0 |
| 20260902174403 | 84 | 300 | 4.0 | 11.0 | 0.00 | 0.00 | 0.00 | 70 | 1017.0 |
| 20260902174303 | 84 | 300 | 4.0 | 11.0 | 0.00 | 0.00 | 0.00 | 70 | 1017.0 |
| 20260902174203 | 84 | 300 | 4.0 | 11.0 | 0.00 | 0.00 | 0.00 | 70 | 1017.2 |
| 20260902174103 | 84 | 300 | 4.0 | 11.0 | 0.00 | 0.00 | 0.00 | 70 | 1017.1 |
| 20260902174003 | 84 | 300 | 4.0 | 11.0 | 0.00 | 0.00 | 0.00 | 70 | 1017.1 |
| 20260902173903 | 84 | 299 | 4.0 | 9.0 | 0.00 | 0.00 | 0.00 | 70 | 1017.1 |
| 20260902173803 | 84 | 298 | 3.0 | 7.0 | 0.00 | 0.00 | 0.00 | 69 | 1017.1 |
| 20260902173703 | 84 | 298 | 3.0 | 7.0 | 0.00 | 0.00 | 0.00 | 69 | 1017.0 |
| 20260902173604 | 84 | 299 | 3.0 | 7.0 | 0.00 | 0.00 | 0.00 | 69 | 1017.0 |
| 20260902173504 | 84 | 297 | 4.0 | 8.0 | 0.00 | 0.00 | 0.00 | 69 | 1017.1 |
| 20260902173404 | 84 | 299 | 4.0 | 8.0 | 0.00 | 0.00 | 0.00 | 69 | 1016.9 |
| 20260902173304 | 84 | 299 | 4.0 | 8.0 | 0.00 | 0.00 | 0.00 | 69 | 1017.0 |
| 20260902173204 | 84 | 299 | 4.0 | 8.0 | 0.00 | 0.00 | 0.00 | 69 | 1016.9 |
| 20260902173104 | 84 | 298 | 4.0 | 8.0 | 0.00 | 0.00 | 0.00 | 69 | 1017.0 |
| 20260902173004 | 84 | 299 | 5.0 | 10.0 | 0.00 | 0.00 | 0.00 | 69 | 1017.1 |
| 20260902172904 | 84 | 299 | 5.0 | 10.0 | 0.00 | 0.00 | 0.00 | 69 | 1017.2 |
| 20260902172804 | 84 | 298 | 5.0 | 10.0 | 0.00 | 0.00 | 0.00 | 69 | 1017.0 |
| 20260902172704 | 84 | 298 | 5.0 | 10.0 | 0.00 | 0.00 | 0.00 | 69 | 1017.1 |
| 20260902172604 | 84 | 298 | 5.0 | 10.0 | 0.00 | 0.00 | 0.00 | 69 | 1017.1 |
| 20260902172504 | 84 | 299 | 5.0 | 10.0 | 0.00 | 0.00 | 0.00 | 69 | 1017.1 |
| 20260902172404 | 84 | 298 | 4.0 | 10.0 | 0.00 | 0.00 | 0.00 | 68 | 1017.0 |
| 20260902172308 | 84 | 297 | 4.0 | 10.0 | 0.00 | 0.00 | 0.00 | 68 | 1016.9 |
| 20260902172204 | 85 | 298 | 4.0 | 10.0 | 0.00 | 0.00 | 0.00 | 68 | 1017.0 |
| 20260902172104 | 85 | 298 | 4.0 | 10.0 | 0.00 | 0.00 | 0.00 | 68 | 1016.9 |
| 20260902172004 | 85 | 297 | 3.0 | 7.0 | 0.00 | 0.00 | 0.00 | 68 | 1016.9 |
| 20260902171904 | 85 | 296 | 3.0 | 7.0 | 0.00 | 0.00 | 0.00 | 68 | 1017.0 |
| 20260902171804 | 85 | 296 | 3.0 | 7.0 | 0.00 | 0.00 | 0.00 | 68 | 1017.2 |
| 20260902171704 | 85 | 296 | 2.0 | 6.0 | 0.00 | 0.00 | 0.00 | 67 | 1017.2 |
| 20260902171604 | 85 | 294 | 2.0 | 6.0 | 0.00 | 0.00 | 0.00 | 67 | 1017.0 |
| 20260902171504 | 85 | 295 | 2.0 | 8.0 | 0.00 | 0.00 | 0.00 | 67 | 1017.1 |
| 20260902171404 | 85 | 295 | 2.0 | 8.0 | 0.00 | 0.00 | 0.00 | 67 | 1017.0 |
| 20260902171304 | 85 | 295 | 3.0 | 8.0 | 0.00 | 0.00 | 0.00 | 67 | 1017.1 |
| 20260902171204 | 85 | 294 | 2.0 | 8.0 | 0.00 | 0.00 | 0.00 | 67 | 1017.0 |
| 20260902171104 | 85 | 293 | 2.0 | 8.0 | 0.00 | 0.00 | 0.00 | 67 | 1017.0 |
| 20260902171004 | 85 | 293 | 2.0 | 8.0 | 0.00 | 0.00 | 0.00 | 67 | 1017.1 |
| 20260902170904 | 85 | 293 | 2.0 | 8.0 | 0.00 | 0.00 | 0.00 | 67 | 1017.1 |
| 20260902170804 | 85 | 294 | 2.0 | 8.0 | 0.00 | 0.00 | 0.00 | 67 | 1017.1 |
| 20260902170704 | 85 | 294 | 2.0 | 8.0 | 0.00 | 0.00 | 0.00 | 67 | 1017.0 |
| 20260902170604 | 85 | 295 | 2.0 | 8.0 | 0.00 | 0.00 | 0.00 | 67 | 1017.0 |
| 20260902170504 | 85 | 296 | 2.0 | 5.0 | 0.00 | 0.00 | 0.00 | 67 | 1017.1 |
| 20260902170404 | 85 | 296 | 2.0 | 5.0 | 0.00 | 0.00 | 0.00 | 67 | 1017.1 |
| 20260902170304 | 85 | 299 | 2.0 | 5.0 | 0.00 | 0.00 | 0.00 | 67 | 1017.1 |
| 20260902170204 | 85 | 298 | 2.0 | 5.0 | 0.00 | 0.00 | 0.00 | 67 | 1017.1 |
| 20260902170104 | 85 | 297 | 2.0 | 5.0 | 0.00 | 0.00 | 0.00 | 67 | 1017.2 |
| 20260902170004 | 85 | 298 | 2.0 | 6.0 | 0.00 | 0.00 | 0.00 | 67 | 1017.1 |
| 20260902165903 | 85 | 298 | 2.0 | 6.0 | 0.00 | 0.00 | 0.00 | 67 | 1017.2 |
| 20260902165804 | 85 | 297 | 2.0 | 6.0 | 0.00 | 0.00 | 0.00 | 67 | 1017.2 |
| 20260902165704 | 85 | 296 | 2.0 | 8.0 | 0.00 | 0.00 | 0.00 | 67 | 1017.2 |
| 20260902165603 | 85 | 296 | 2.0 | 8.0 | 0.00 | 0.00 | 0.00 | 67 | 1017.2 |
| 20260902165504 | 85 | 299 | 3.0 | 8.0 | 0.00 | 0.00 | 0.00 | 67 | 1017.2 |
| 20260902165404 | 85 | 299 | 3.0 | 8.0 | 0.00 | 0.00 | 0.00 | 67 | 1017.1 |
| 20260902165308 | 85 | 299 | 3.0 | 8.0 | 0.00 | 0.00 | 0.00 | 67 | 1017.1 |
| 20260902165203 | 85 | 299 | 4.0 | 9.0 | 0.00 | 0.00 | 0.00 | 67 | 1017.1 |
| 20260902165103 | 85 | 299 | 4.0 | 9.0 | 0.00 | 0.00 | 0.00 | 67 | 1017.1 |
| 20260902165003 | 85 | 298 | 4.0 | 9.0 | 0.00 | 0.00 | 0.00 | 67 | 1017.2 |
| 20260902164903 | 85 | 298 | 4.0 | 9.0 | 0.00 | 0.00 | 0.00 | 67 | 1017.3 |
| 20260902164803 | 85 | 298 | 4.0 | 9.0 | 0.00 | 0.00 | 0.00 | 67 | 1017.3 |
| 20260902164703 | 85 | 299 | 4.0 | 9.0 | 0.00 | 0.00 | 0.00 | 67 | 1017.4 |
| 20260902164604 | 85 | 299 | 4.0 | 9.0 | 0.00 | 0.00 | 0.00 | 67 | 1017.3 |
| 20260902164503 | 85 | 298 | 4.0 | 9.0 | 0.00 | 0.00 | 0.00 | 67 | 1017.3 |
| 20260902164403 | 85 | 298 | 4.0 | 9.0 | 0.00 | 0.00 | 0.00 | 67 | 1017.3 |
| 20260902164303 | 85 | 299 | 4.0 | 9.0 | 0.00 | 0.00 | 0.00 | 67 | 1017.2 |
| 20260902164203 | 85 | 300 | 4.0 | 12.0 | 0.00 | 0.00 | 0.00 | 67 | 1017.2 |
| 20260902164103 | 85 | 301 | 4.0 | 12.0 | 0.00 | 0.00 | 0.00 | 67 | 1017.2 |
| 20260902164003 | 85 | 302 | 4.0 | 12.0 | 0.00 | 0.00 | 0.00 | 66 | 1017.2 |
| 20260902163903 | 85 | 301 | 4.0 | 12.0 | 0.00 | 0.00 | 0.00 | 66 | 1017.3 |
| 20260902163803 | 86 | 301 | 4.0 | 12.0 | 0.00 | 0.00 | 0.00 | 66 | 1017.3 |
| 20260902163703 | 86 | 300 | 4.0 | 12.0 | 0.00 | 0.00 | 0.00 | 66 | 1017.3 |
| 20260902163603 | 86 | 299 | 4.0 | 12.0 | 0.00 | 0.00 | 0.00 | 66 | 1017.3 |
| 20260902163503 | 86 | 297 | 4.0 | 12.0 | 0.00 | 0.00 | 0.00 | 66 | 1017.3 |
| 20260902163403 | 86 | 297 | 4.0 | 12.0 | 0.00 | 0.00 | 0.00 | 66 | 1017.5 |
| 20260902163303 | 86 | 296 | 4.0 | 12.0 | 0.00 | 0.00 | 0.00 | 66 | 1017.5 |
| 20260902163203 | 86 | 294 | 4.0 | 9.0 | 0.00 | 0.00 | 0.00 | 66 | 1017.4 |
| 20260902163103 | 86 | 294 | 3.0 | 9.0 | 0.00 | 0.00 | 0.00 | 65 | 1017.5 |
| 20260902163003 | 86 | 294 | 3.0 | 9.0 | 0.00 | 0.00 | 0.00 | 66 | 1017.4 |
| 20260902162903 | 86 | 294 | 3.0 | 9.0 | 0.00 | 0.00 | 0.00 | 65 | 1017.4 |
| 20260902162803 | 86 | 295 | 3.0 | 9.0 | 0.00 | 0.00 | 0.00 | 65 | 1017.4 |
| 20260902162703 | 86 | 295 | 3.0 | 9.0 | 0.00 | 0.00 | 0.00 | 65 | 1017.5 |
| 20260902162603 | 86 | 297 | 2.0 | 7.0 | 0.00 | 0.00 | 0.00 | 65 | 1017.4 |
| 20260902162504 | 86 | 298 | 3.0 | 7.0 | 0.00 | 0.00 | 0.00 | 65 | 1017.3 |
| 20260902162403 | 86 | 298 | 2.0 | 7.0 | 0.00 | 0.00 | 0.00 | 65 | 1017.4 |
| 20260902162306 | 86 | 299 | 2.0 | 7.0 | 0.00 | 0.00 | 0.00 | 65 | 1017.5 |
| 20260902162203 | 86 | 299 | 2.0 | 7.0 | 0.00 | 0.00 | 0.00 | 65 | 1017.5 |
| 20260902162103 | 86 | 301 | 2.0 | 7.0 | 0.00 | 0.00 | 0.00 | 65 | 1017.5 |
| 20260902162004 | 86 | 301 | 3.0 | 7.0 | 0.00 | 0.00 | 0.00 | 65 | 1017.5 |
| 20260902161903 | 86 | 302 | 3.0 | 8.0 | 0.00 | 0.00 | 0.00 | 65 | 1017.4 |
| 20260902161803 | 86 | 302 | 3.0 | 8.0 | 0.00 | 0.00 | 0.00 | 65 | 1017.4 |
| 20260902161703 | 86 | 301 | 3.0 | 8.0 | 0.00 | 0.00 | 0.00 | 65 | 1017.4 |
| 20260902161603 | 86 | 300 | 3.0 | 8.0 | 0.00 | 0.00 | 0.00 | 65 | 1017.3 |
| 20260902161503 | 86 | 301 | 3.0 | 9.0 | 0.00 | 0.00 | 0.00 | 64 | 1017.4 |
| 20260902161403 | 86 | 301 | 4.0 | 9.0 | 0.00 | 0.00 | 0.00 | 64 | 1017.4 |
| 20260902161303 | 87 | 300 | 4.0 | 9.0 | 0.00 | 0.00 | 0.00 | 64 | 1017.3 |
| 20260902161203 | 87 | 301 | 4.0 | 9.0 | 0.00 | 0.00 | 0.00 | 64 | 1017.4 |
| 20260902161103 | 87 | 299 | 3.0 | 9.0 | 0.00 | 0.00 | 0.00 | 64 | 1017.5 |
| 20260902161003 | 87 | 299 | 3.0 | 9.0 | 0.00 | 0.00 | 0.00 | 64 | 1017.4 |
| 20260902160903 | 87 | 297 | 3.0 | 9.0 | 0.00 | 0.00 | 0.00 | 64 | 1017.3 |
| 20260902160803 | 87 | 298 | 3.0 | 9.0 | 0.00 | 0.00 | 0.00 | 64 | 1017.3 |
| 20260902160703 | 87 | 298 | 3.0 | 9.0 | 0.00 | 0.00 | 0.00 | 64 | 1017.3 |
| 20260902160603 | 87 | 297 | 3.0 | 9.0 | 0.00 | 0.00 | 0.00 | 64 | 1017.3 |
| 20260902160503 | 87 | 298 | 3.0 | 7.0 | 0.00 | 0.00 | 0.00 | 64 | 1017.2 |
| 20260902160403 | 87 | 299 | 3.0 | 7.0 | 0.00 | 0.00 | 0.00 | 64 | 1017.3 |
| 20260902160303 | 87 | 298 | 3.0 | 7.0 | 0.00 | 0.00 | 0.00 | 64 | 1017.3 |
| 20260902160203 | 87 | 297 | 3.0 | 7.0 | 0.00 | 0.00 | 0.00 | 63 | 1017.2 |
| 20260902160103 | 87 | 296 | 3.0 | 7.0 | 0.00 | 0.00 | 0.00 | 63 | 1017.2 |
| 20260902160004 | 87 | 297 | 3.0 | 7.0 | 0.00 | 0.00 | 0.00 | 63 | 1017.2 |
| 20260902155903 | 87 | 296 | 3.0 | 7.0 | 0.00 | 0.00 | 0.00 | 63 | 1017.2 |
| 20260902155803 | 87 | 293 | 3.0 | 10.0 | 0.00 | 0.00 | 0.00 | 63 | 1017.2 |
| 20260902155703 | 87 | 294 | 3.0 | 10.0 | 0.00 | 0.00 | 0.00 | 63 | 1017.2 |
| 20260902155603 | 87 | 293 | 3.0 | 10.0 | 0.00 | 0.00 | 0.00 | 63 | 1017.4 |
| 20260902155503 | 87 | 292 | 3.0 | 10.0 | 0.00 | 0.00 | 0.00 | 63 | 1017.3 |
| 20260902155403 | 87 | 291 | 3.0 | 10.0 | 0.00 | 0.00 | 0.00 | 63 | 1017.2 |
| 20260902155306 | 87 | 292 | 3.0 | 10.0 | 0.00 | 0.00 | 0.00 | 63 | 1017.3 |
| 20260902155203 | 87 | 292 | 3.0 | 10.0 | 0.00 | 0.00 | 0.00 | 63 | 1017.3 |
| 20260902155103 | 87 | 293 | 3.0 | 10.0 | 0.00 | 0.00 | 0.00 | 63 | 1017.3 |
| 20260902155003 | 87 | 293 | 3.0 | 10.0 | 0.00 | 0.00 | 0.00 | 63 | 1017.3 |
| 20260902154903 | 87 | 295 | 3.0 | 10.0 | 0.00 | 0.00 | 0.00 | 63 | 1017.3 |
| 20260902154803 | 87 | 298 | 3.0 | 8.0 | 0.00 | 0.00 | 0.00 | 63 | 1017.2 |
| 20260902154703 | 87 | 298 | 3.0 | 8.0 | 0.00 | 0.00 | 0.00 | 63 | 1017.3 |
| 20260902154603 | 87 | 298 | 3.0 | 8.0 | 0.00 | 0.00 | 0.00 | 63 | 1017.2 |
| 20260902154503 | 87 | 298 | 3.0 | 8.0 | 0.00 | 0.00 | 0.00 | 63 | 1017.3 |
| 20260902154403 | 87 | 299 | 4.0 | 8.0 | 0.00 | 0.00 | 0.00 | 63 | 1017.4 |
| 20260902154303 | 87 | 300 | 4.0 | 8.0 | 0.00 | 0.00 | 0.00 | 63 | 1017.3 |
| 20260902154203 | 87 | 301 | 4.0 | 8.0 | 0.00 | 0.00 | 0.00 | 63 | 1017.4 |
| 20260902154103 | 87 | 302 | 4.0 | 9.0 | 0.00 | 0.00 | 0.00 | 62 | 1017.4 |
| 20260902154003 | 87 | 302 | 4.0 | 9.0 | 0.00 | 0.00 | 0.00 | 62 | 1017.5 |
| 20260902153903 | 87 | 303 | 4.0 | 9.0 | 0.00 | 0.00 | 0.00 | 62 | 1017.5 |
| 20260902153803 | 87 | 303 | 4.0 | 9.0 | 0.00 | 0.00 | 0.00 | 62 | 1017.5 |
| 20260902153703 | 87 | 303 | 4.0 | 9.0 | 0.00 | 0.00 | 0.00 | 62 | 1017.5 |
| 20260902153603 | 87 | 303 | 4.0 | 10.0 | 0.00 | 0.00 | 0.00 | 62 | 1017.4 |
| 20260902153503 | 87 | 304 | 5.0 | 13.0 | 0.00 | 0.00 | 0.00 | 62 | 1017.5 |
| 20260902153403 | 87 | 302 | 5.0 | 13.0 | 0.00 | 0.00 | 0.00 | 62 | 1017.5 |
| 20260902153303 | 87 | 302 | 5.0 | 13.0 | 0.00 | 0.00 | 0.00 | 62 | 1017.4 |
| 20260902153203 | 87 | 300 | 5.0 | 13.0 | 0.00 | 0.00 | 0.00 | 62 | 1017.5 |
| 20260902153103 | 87 | 300 | 4.0 | 13.0 | 0.00 | 0.00 | 0.00 | 62 | 1017.5 |
| 20260902153003 | 87 | 300 | 5.0 | 13.0 | 0.00 | 0.00 | 0.00 | 62 | 1017.4 |
| 20260902152903 | 87 | 298 | 5.0 | 13.0 | 0.00 | 0.00 | 0.00 | 62 | 1017.4 |
| 20260902152804 | 88 | 297 | 5.0 | 13.0 | 0.00 | 0.00 | 0.00 | 62 | 1017.4 |
| 20260902152704 | 88 | 297 | 5.0 | 13.0 | 0.00 | 0.00 | 0.00 | 62 | 1017.4 |
| 20260902152604 | 88 | 297 | 5.0 | 13.0 | 0.00 | 0.00 | 0.00 | 62 | 1017.4 |
| 20260902152504 | 88 | 296 | 4.0 | 13.0 | 0.00 | 0.00 | 0.00 | 61 | 1017.5 |
| 20260902152404 | 88 | 298 | 4.0 | 10.0 | 0.00 | 0.00 | 0.00 | 61 | 1017.4 |
| 20260902152307 | 88 | 299 | 4.0 | 10.0 | 0.00 | 0.00 | 0.00 | 61 | 1017.4 |
| 20260902152204 | 88 | 300 | 4.0 | 10.0 | 0.00 | 0.00 | 0.00 | 61 | 1017.5 |
| 20260902152104 | 88 | 299 | 4.0 | 10.0 | 0.00 | 0.00 | 0.00 | 61 | 1017.5 |
| 20260902152004 | 88 | 299 | 4.0 | 10.0 | 0.00 | 0.00 | 0.00 | 61 | 1017.4 |
| 20260902151904 | 88 | 299 | 4.0 | 10.0 | 0.00 | 0.00 | 0.00 | 61 | 1017.4 |
| 20260902151804 | 88 | 301 | 4.0 | 10.0 | 0.00 | 0.00 | 0.00 | 60 | 1017.4 |
| 20260902151704 | 88 | 300 | 5.0 | 10.0 | 0.00 | 0.00 | 0.00 | 60 | 1017.4 |
| 20260902151604 | 88 | 300 | 5.0 | 10.0 | 0.00 | 0.00 | 0.00 | 60 | 1017.5 |
| 20260902151504 | 88 | 300 | 5.0 | 10.0 | 0.00 | 0.00 | 0.00 | 60 | 1017.4 |
| 20260902151404 | 88 | 301 | 5.0 | 10.0 | 0.00 | 0.00 | 0.00 | 60 | 1017.4 |
| 20260902151304 | 88 | 303 | 5.0 | 10.0 | 0.00 | 0.00 | 0.00 | 59 | 1017.4 |
| 20260902151204 | 88 | 303 | 5.0 | 10.0 | 0.00 | 0.00 | 0.00 | 59 | 1017.3 |
| 20260902151104 | 88 | 305 | 5.0 | 10.0 | 0.00 | 0.00 | 0.00 | 60 | 1017.4 |
| 20260902151004 | 88 | 305 | 5.0 | 10.0 | 0.00 | 0.00 | 0.00 | 59 | 1017.5 |
| 20260902150904 | 88 | 305 | 5.0 | 10.0 | 0.00 | 0.00 | 0.00 | 59 | 1017.4 |
| 20260902150804 | 88 | 306 | 5.0 | 10.0 | 0.00 | 0.00 | 0.00 | 59 | 1017.4 |
| 20260902150704 | 88 | 308 | 5.0 | 10.0 | 0.00 | 0.00 | 0.00 | 58 | 1017.5 |
| 20260902150604 | 88 | 305 | 5.0 | 12.0 | 0.00 | 0.00 | 0.00 | 58 | 1017.5 |
| 20260902150504 | 88 | 304 | 5.0 | 12.0 | 0.00 | 0.00 | 0.00 | 58 | 1017.5 |
| 20260902150404 | 89 | 304 | 5.0 | 12.0 | 0.00 | 0.00 | 0.00 | 58 | 1017.5 |
| 20260902150304 | 89 | 302 | 4.0 | 12.0 | 0.00 | 0.00 | 0.00 | 57 | 1017.5 |
| 20260902150204 | 89 | 301 | 4.0 | 12.0 | 0.00 | 0.00 | 0.00 | 57 | 1017.5 |
| 20260902150104 | 89 | 300 | 4.0 | 12.0 | 0.00 | 0.00 | 0.00 | 57 | 1017.6 |
| 20260902150004 | 89 | 300 | 4.0 | 12.0 | 0.00 | 0.00 | 0.00 | 57 | 1017.6 |
| 20260902145904 | 89 | 300 | 5.0 | 12.0 | 0.00 | 0.00 | 0.00 | 57 | 1017.5 |
| 20260902145804 | 89 | 298 | 5.0 | 12.0 | 0.00 | 0.00 | 0.00 | 57 | 1017.6 |
| 20260902145704 | 89 | 296 | 4.0 | 12.0 | 0.00 | 0.00 | 0.00 | 57 | 1017.5 |
| 20260902145604 | 89 | 298 | 4.0 | 10.0 | 0.00 | 0.00 | 0.00 | 57 | 1017.5 |
| 20260902145504 | 89 | 298 | 4.0 | 10.0 | 0.00 | 0.00 | 0.00 | 56 | 1017.4 |
| 20260902145404 | 89 | 298 | 4.0 | 10.0 | 0.00 | 0.00 | 0.00 | 56 | 1017.5 |
| 20260902145306 | 89 | 298 | 4.0 | 8.0 | 0.00 | 0.00 | 0.00 | 56 | 1017.5 |
| 20260902145204 | 89 | 300 | 4.0 | 8.0 | 0.00 | 0.00 | 0.00 | 55 | 1017.5 |
| 20260902145104 | 89 | 300 | 4.0 | 8.0 | 0.00 | 0.00 | 0.00 | 56 | 1017.5 |
| 20260902145004 | 89 | 300 | 4.0 | 8.0 | 0.00 | 0.00 | 0.00 | 55 | 1017.5 |
| 20260902144903 | 89 | 298 | 4.0 | 7.0 | 0.00 | 0.00 | 0.00 | 55 | 1017.6 |
| 20260902144804 | 89 | 299 | 4.0 | 7.0 | 0.00 | 0.00 | 0.00 | 55 | 1017.4 |
| 20260902144703 | 89 | 298 | 3.0 | 7.0 | 0.00 | 0.00 | 0.00 | 55 | 1017.4 |
| 20260902144604 | 89 | 298 | 3.0 | 7.0 | 0.00 | 0.00 | 0.00 | 54 | 1017.5 |
| 20260902144504 | 89 | 298 | 3.0 | 7.0 | 0.00 | 0.00 | 0.00 | 54 | 1017.4 |
| 20260902144404 | 89 | 297 | 3.0 | 7.0 | 0.00 | 0.00 | 0.00 | 54 | 1017.4 |
| 20260902144304 | 89 | 295 | 3.0 | 7.0 | 0.00 | 0.00 | 0.00 | 54 | 1017.4 |
| 20260902144203 | 89 | 294 | 3.0 | 8.0 | 0.00 | 0.00 | 0.00 | 54 | 1017.5 |
| 20260902144104 | 89 | 294 | 2.0 | 8.0 | 0.00 | 0.00 | 0.00 | 54 | 1017.5 |
| 20260902144003 | 89 | 293 | 2.0 | 8.0 | 0.00 | 0.00 | 0.00 | 54 | 1017.5 |
| 20260902143903 | 89 | 296 | 2.0 | 8.0 | 0.00 | 0.00 | 0.00 | 53 | 1017.5 |
| 20260902143803 | 89 | 297 | 2.0 | 8.0 | 0.00 | 0.00 | 0.00 | 52 | 1017.4 |
| 20260902143703 | 89 | 300 | 2.0 | 8.0 | 0.00 | 0.00 | 0.00 | 52 | 1017.3 |
| 20260902143603 | 89 | 301 | 3.0 | 8.0 | 0.00 | 0.00 | 0.00 | 52 | 1017.5 |
| 20260902143504 | 89 | 302 | 2.0 | 8.0 | 0.00 | 0.00 | 0.00 | 52 | 1017.5 |
| 20260902143404 | 89 | 302 | 3.0 | 11.0 | 0.00 | 0.00 | 0.00 | 52 | 1017.5 |
| 20260902143303 | 89 | 303 | 3.0 | 11.0 | 0.00 | 0.00 | 0.00 | 52 | 1017.5 |
| 20260902143203 | 89 | 305 | 3.0 | 11.0 | 0.00 | 0.00 | 0.00 | 52 | 1017.5 |
| 20260902143103 | 89 | 306 | 3.0 | 13.0 | 0.00 | 0.00 | 0.00 | 52 | 1017.5 |
| 20260902143003 | 89 | 306 | 3.0 | 13.0 | 0.00 | 0.00 | 0.00 | 52 | 1017.5 |
| 20260902142903 | 89 | 305 | 3.0 | 13.0 | 0.00 | 0.00 | 0.00 | 52 | 1017.5 |
| 20260902142803 | 89 | 305 | 3.0 | 13.0 | 0.00 | 0.00 | 0.00 | 52 | 1017.3 |
| 20260902142705 | 89 | 303 | 3.0 | 13.0 | 0.00 | 0.00 | 0.00 | 51 | 1017.5 |
| 20260902142605 | 89 | 303 | 3.0 | 13.0 | 0.00 | 0.00 | 0.00 | 51 | 1017.5 |
| 20260902142503 | 89 | 301 | 3.0 | 13.0 | 0.00 | 0.00 | 0.00 | 51 | 1017.5 |
| 20260902142403 | 90 | 302 | 3.0 | 13.0 | 0.00 | 0.00 | 0.00 | 51 | 1017.5 |
| 20260902142306 | 90 | 302 | 3.0 | 13.0 | 0.00 | 0.00 | 0.00 | 51 | 1017.5 |
| 20260902142203 | 90 | 300 | 3.0 | 13.0 | 0.00 | 0.00 | 0.00 | 51 | 1017.5 |
| 20260902142103 | 89 | 299 | 3.0 | 8.0 | 0.00 | 0.00 | 0.00 | 51 | 1017.6 |
| 20260902142003 | 89 | 300 | 3.0 | 8.0 | 0.00 | 0.00 | 0.00 | 51 | 1017.5 |
| 20260902141903 | 89 | 299 | 3.0 | 10.0 | 0.00 | 0.00 | 0.00 | 51 | 1017.5 |
| 20260902141803 | 89 | 298 | 3.0 | 10.0 | 0.00 | 0.00 | 0.00 | 51 | 1017.5 |
| 20260902141703 | 89 | 298 | 3.0 | 10.0 | 0.00 | 0.00 | 0.00 | 51 | 1017.5 |
| 20260902141603 | 89 | 297 | 4.0 | 11.0 | 0.00 | 0.00 | 0.00 | 51 | 1017.5 |
| 20260902141503 | 89 | 300 | 4.0 | 11.0 | 0.00 | 0.00 | 0.00 | 51 | 1017.6 |
| 20260902141403 | 89 | 301 | 4.0 | 11.0 | 0.00 | 0.00 | 0.00 | 51 | 1017.6 |
| 20260902141303 | 90 | 301 | 4.0 | 11.0 | 0.00 | 0.00 | 0.00 | 51 | 1017.6 |
| 20260902141203 | 90 | 301 | 5.0 | 11.0 | 0.00 | 0.00 | 0.00 | 50 | 1017.6 |
| 20260902141103 | 89 | 300 | 5.0 | 11.0 | 0.00 | 0.00 | 0.00 | 50 | 1017.6 |
| 20260902141003 | 90 | 299 | 5.0 | 11.0 | 0.00 | 0.00 | 0.00 | 49 | 1017.6 |
| 20260902140903 | 90 | 301 | 5.0 | 11.0 | 0.00 | 0.00 | 0.00 | 49 | 1017.6 |
| 20260902140803 | 89 | 301 | 5.0 | 11.0 | 0.00 | 0.00 | 0.00 | 49 | 1017.6 |
| 20260902140703 | 90 | 301 | 5.0 | 11.0 | 0.00 | 0.00 | 0.00 | 49 | 1017.6 |
| 20260902140603 | 90 | 302 | 5.0 | 11.0 | 0.00 | 0.00 | 0.00 | 49 | 1017.6 |
| 20260902140503 | 90 | 301 | 5.0 | 11.0 | 0.00 | 0.00 | 0.00 | 49 | 1017.7 |
| 20260902140403 | 90 | 298 | 5.0 | 10.0 | 0.00 | 0.00 | 0.00 | 49 | 1017.6 |
| 20260902140303 | 90 | 299 | 5.0 | 10.0 | 0.00 | 0.00 | 0.00 | 49 | 1017.6 |
| 20260902140203 | 90 | 301 | 5.0 | 11.0 | 0.00 | 0.00 | 0.00 | 49 | 1017.6 |
| 20260902140103 | 90 | 301 | 5.0 | 14.0 | 0.00 | 0.00 | 0.00 | 49 | 1017.6 |
| 20260902140003 | 90 | 302 | 5.0 | 14.0 | 0.00 | 0.00 | 0.00 | 49 | 1017.7 |
| 20260902135903 | 90 | 302 | 5.0 | 14.0 | 0.00 | 0.00 | 0.00 | 49 | 1017.6 |
| 20260902135803 | 90 | 302 | 5.0 | 14.0 | 0.00 | 0.00 | 0.00 | 49 | 1017.6 |
| 20260902135703 | 90 | 303 | 6.0 | 14.0 | 0.00 | 0.00 | 0.00 | 49 | 1017.6 |
| 20260902135603 | 90 | 303 | 6.0 | 14.0 | 0.00 | 0.00 | 0.00 | 49 | 1017.6 |
| 20260902135503 | 90 | 303 | 5.0 | 14.0 | 0.00 | 0.00 | 0.00 | 49 | 1017.6 |
| 20260902135403 | 90 | 306 | 5.0 | 14.0 | 0.00 | 0.00 | 0.00 | 48 | 1017.8 |
| 20260902135306 | 90 | 306 | 5.0 | 14.0 | 0.00 | 0.00 | 0.00 | 48 | 1017.7 |
| 20260902135203 | 90 | 305 | 5.0 | 14.0 | 0.00 | 0.00 | 0.00 | 48 | 1017.7 |
| 20260902135103 | 90 | 307 | 4.0 | 13.0 | 0.00 | 0.00 | 0.00 | 47 | 1017.7 |
| 20260902135003 | 90 | 307 | 4.0 | 13.0 | 0.00 | 0.00 | 0.00 | 47 | 1017.7 |
| 20260902134903 | 90 | 306 | 4.0 | 13.0 | 0.00 | 0.00 | 0.00 | 47 | 1017.7 |
| 20260902134803 | 90 | 306 | 3.0 | 10.0 | 0.00 | 0.00 | 0.00 | 47 | 1017.7 |
| 20260902134703 | 90 | 305 | 4.0 | 11.0 | 0.00 | 0.00 | 0.00 | 47 | 1017.7 |
| 20260902134603 | 90 | 305 | 4.0 | 11.0 | 0.00 | 0.00 | 0.00 | 47 | 1017.7 |
| 20260902134503 | 90 | 305 | 3.0 | 11.0 | 0.00 | 0.00 | 0.00 | 48 | 1017.7 |
| 20260902134403 | 90 | 302 | 3.0 | 11.0 | 0.00 | 0.00 | 0.00 | 49 | 1017.8 |
| 20260902134303 | 90 | 301 | 3.0 | 11.0 | 0.00 | 0.00 | 0.00 | 50 | 1017.8 |
| 20260902134203 | 90 | 302 | 3.0 | 11.0 | 0.00 | 0.00 | 0.00 | 51 | 1017.7 |
| 20260902134103 | 90 | 301 | 3.0 | 11.0 | 0.00 | 0.00 | 0.00 | 51 | 1017.8 |
| 20260902134003 | 90 | 302 | 4.0 | 11.0 | 0.00 | 0.00 | 0.00 | 51 | 1017.7 |
| 20260902133903 | 90 | 301 | 4.0 | 11.0 | 0.00 | 0.00 | 0.00 | 51 | 1017.8 |
| 20260902133803 | 90 | 300 | 5.0 | 11.0 | 0.00 | 0.00 | 0.00 | 51 | 1017.7 |
| 20260902133703 | 89 | 300 | 4.0 | 11.0 | 0.00 | 0.00 | 0.00 | 53 | 1017.7 |
| 20260902133603 | 89 | 300 | 4.0 | 11.0 | 0.00 | 0.00 | 0.00 | 53 | 1017.8 |
| 20260902133503 | 89 | 299 | 5.0 | 11.0 | 0.00 | 0.00 | 0.00 | 53 | 1017.8 |
| 20260902133403 | 89 | 299 | 5.0 | 11.0 | 0.00 | 0.00 | 0.00 | 52 | 1017.8 |
| 20260902133303 | 89 | 300 | 5.0 | 11.0 | 0.00 | 0.00 | 0.00 | 53 | 1017.8 |
| 20260902133203 | 89 | 298 | 5.0 | 11.0 | 0.00 | 0.00 | 0.00 | 53 | 1017.9 |
| 20260902133103 | 89 | 298 | 5.0 | 11.0 | 0.00 | 0.00 | 0.00 | 53 | 1017.9 |
| 20260902133003 | 89 | 298 | 5.0 | 11.0 | 0.00 | 0.00 | 0.00 | 53 | 1017.8 |
| 20260902132903 | 89 | 299 | 5.0 | 11.0 | 0.00 | 0.00 | 0.00 | 53 | 1017.8 |
| 20260902132803 | 89 | 300 | 5.0 | 10.0 | 0.00 | 0.00 | 0.00 | 53 | 1017.7 |
| 20260902132703 | 89 | 300 | 5.0 | 10.0 | 0.00 | 0.00 | 0.00 | 53 | 1017.8 |
| 20260902132603 | 89 | 300 | 5.0 | 10.0 | 0.00 | 0.00 | 0.00 | 53 | 1017.9 |
| 20260902132503 | 89 | 302 | 5.0 | 10.0 | 0.00 | 0.00 | 0.00 | 53 | 1017.9 |
| 20260902132403 | 89 | 302 | 5.0 | 9.0 | 0.00 | 0.00 | 0.00 | 53 | 1017.9 |
| 20260902132306 | 90 | 303 | 5.0 | 9.0 | 0.00 | 0.00 | 0.00 | 53 | 1017.8 |
| 20260902132203 | 90 | 303 | 4.0 | 9.0 | 0.00 | 0.00 | 0.00 | 53 | 1017.9 |
| 20260902132103 | 90 | 305 | 4.0 | 9.0 | 0.00 | 0.00 | 0.00 | 53 | 1018.0 |
| 20260902132003 | 90 | 305 | 4.0 | 11.0 | 0.00 | 0.00 | 0.00 | 53 | 1017.9 |
| 20260902131903 | 90 | 304 | 5.0 | 11.0 | 0.00 | 0.00 | 0.00 | 53 | 1017.9 |
| 20260902131803 | 90 | 305 | 5.0 | 13.0 | 0.00 | 0.00 | 0.00 | 53 | 1018.0 |
| 20260902131703 | 89 | 305 | 5.0 | 13.0 | 0.00 | 0.00 | 0.00 | 53 | 1017.9 |
| 20260902131603 | 90 | 304 | 5.0 | 13.0 | 0.00 | 0.00 | 0.00 | 53 | 1017.9 |
| 20260902131503 | 90 | 304 | 5.0 | 13.0 | 0.00 | 0.00 | 0.00 | 53 | 1017.9 |
| 20260902131403 | 90 | 304 | 5.0 | 13.0 | 0.00 | 0.00 | 0.00 | 54 | 1017.8 |
| 20260902131303 | 90 | 303 | 5.0 | 13.0 | 0.00 | 0.00 | 0.00 | 53 | 1017.9 |
| 20260902131203 | 90 | 304 | 5.0 | 13.0 | 0.00 | 0.00 | 0.00 | 53 | 1017.8 |
| 20260902131103 | 89 | 303 | 6.0 | 13.0 | 0.00 | 0.00 | 0.00 | 53 | 1017.9 |
| 20260902131003 | 90 | 304 | 6.0 | 13.0 | 0.00 | 0.00 | 0.00 | 53 | 1017.9 |
| 20260902130903 | 90 | 305 | 6.0 | 16.0 | 0.00 | 0.00 | 0.00 | 53 | 1017.7 |
| 20260902130803 | 90 | 305 | 6.0 | 16.0 | 0.00 | 0.00 | 0.00 | 53 | 1017.7 |
| 20260902130703 | 90 | 306 | 6.0 | 16.0 | 0.00 | 0.00 | 0.00 | 53 | 1017.7 |
| 20260902130604 | 90 | 306 | 6.0 | 16.0 | 0.00 | 0.00 | 0.00 | 54 | 1017.7 |
| 20260902130504 | 90 | 306 | 7.0 | 16.0 | 0.00 | 0.00 | 0.00 | 54 | 1017.7 |
| 20260902130404 | 90 | 304 | 7.0 | 16.0 | 0.00 | 0.00 | 0.00 | 54 | 1017.7 |
| 20260902130304 | 90 | 304 | 7.0 | 16.0 | 0.00 | 0.00 | 0.00 | 54 | 1017.7 |
| 20260902130204 | 90 | 304 | 7.0 | 16.0 | 0.00 | 0.00 | 0.00 | 54 | 1017.9 |
| 20260902130104 | 90 | 305 | 6.0 | 16.0 | 0.00 | 0.00 | 0.00 | 54 | 1017.7 |
| 20260902130004 | 90 | 303 | 6.0 | 16.0 | 0.00 | 0.00 | 0.00 | 53 | 1017.9 |
| 20260902125904 | 90 | 301 | 6.0 | 15.0 | 0.00 | 0.00 | 0.00 | 53 | 1017.9 |
| 20260902125804 | 90 | 301 | 6.0 | 15.0 | 0.00 | 0.00 | 0.00 | 53 | 1017.9 |
| 20260902125704 | 90 | 299 | 6.0 | 14.0 | 0.00 | 0.00 | 0.00 | 53 | 1017.9 |
| 20260902125604 | 90 | 299 | 5.0 | 14.0 | 0.00 | 0.00 | 0.00 | 54 | 1017.9 |
| 20260902125504 | 90 | 298 | 5.0 | 14.0 | 0.00 | 0.00 | 0.00 | 54 | 1017.9 |
| 20260902125404 | 90 | 298 | 5.0 | 11.0 | 0.00 | 0.00 | 0.00 | 54 | 1017.8 |
| 20260902125306 | 90 | 299 | 5.0 | 11.0 | 0.00 | 0.00 | 0.00 | 53 | 1017.9 |
| 20260902125204 | 90 | 299 | 5.0 | 11.0 | 0.00 | 0.00 | 0.00 | 53 | 1017.8 |
| 20260902125104 | 90 | 298 | 5.0 | 11.0 | 0.00 | 0.00 | 0.00 | 53 | 1017.8 |
| 20260902125004 | 90 | 299 | 5.0 | 11.0 | 0.00 | 0.00 | 0.00 | 53 | 1017.9 |
| 20260902124904 | 90 | 300 | 5.0 | 13.0 | 0.00 | 0.00 | 0.00 | 53 | 1017.9 |
| 20260902124804 | 90 | 299 | 5.0 | 13.0 | 0.00 | 0.00 | 0.00 | 53 | 1018.0 |
| 20260902124704 | 90 | 301 | 5.0 | 13.0 | 0.00 | 0.00 | 0.00 | 53 | 1018.0 |
| 20260902124604 | 90 | 300 | 5.0 | 13.0 | 0.00 | 0.00 | 0.00 | 53 | 1017.9 |
| 20260902124504 | 90 | 299 | 5.0 | 13.0 | 0.00 | 0.00 | 0.00 | 53 | 1018.0 |
| 20260902124404 | 90 | 299 | 4.0 | 13.0 | 0.00 | 0.00 | 0.00 | 53 | 1017.9 |
| 20260902124304 | 90 | 298 | 5.0 | 13.0 | 0.00 | 0.00 | 0.00 | 53 | 1018.0 |
| 20260902124204 | 90 | 297 | 5.0 | 14.0 | 0.00 | 0.00 | 0.00 | 53 | 1017.9 |
| 20260902124104 | 90 | 297 | 5.0 | 14.0 | 0.00 | 0.00 | 0.00 | 53 | 1018.0 |
| 20260902124004 | 90 | 296 | 5.0 | 14.0 | 0.00 | 0.00 | 0.00 | 53 | 1018.0 |
| 20260902123904 | 90 | 296 | 4.0 | 14.0 | 0.00 | 0.00 | 0.00 | 54 | 1018.0 |
| 20260902123804 | 90 | 297 | 4.0 | 14.0 | 0.00 | 0.00 | 0.00 | 54 | 1018.0 |
| 20260902123704 | 90 | 296 | 4.0 | 14.0 | 0.00 | 0.00 | 0.00 | 54 | 1018.0 |
| 20260902123604 | 90 | 297 | 4.0 | 14.0 | 0.00 | 0.00 | 0.00 | 53 | 1018.0 |
| 20260902123504 | 90 | 297 | 4.0 | 14.0 | 0.00 | 0.00 | 0.00 | 53 | 1018.0 |
| 20260902123404 | 90 | 299 | 4.0 | 14.0 | 0.00 | 0.00 | 0.00 | 53 | 1018.0 |
| 20260902123304 | 90 | 302 | 4.0 | 14.0 | 0.00 | 0.00 | 0.00 | 53 | 1018.1 |
| 20260902123204 | 90 | 302 | 3.0 | 10.0 | 0.00 | 0.00 | 0.00 | 54 | 1018.1 |
| 20260902123104 | 90 | 303 | 3.0 | 8.0 | 0.00 | 0.00 | 0.00 | 54 | 1018.0 |
| 20260902123004 | 90 | 302 | 3.0 | 8.0 | 0.00 | 0.00 | 0.00 | 54 | 1018.0 |
| 20260902122904 | 90 | 302 | 4.0 | 8.0 | 0.00 | 0.00 | 0.00 | 54 | 1018.1 |
| 20260902122804 | 90 | 301 | 4.0 | 8.0 | 0.00 | 0.00 | 0.00 | 54 | 1018.1 |
| 20260902122704 | 90 | 303 | 4.0 | 9.0 | 0.00 | 0.00 | 0.00 | 54 | 1018.0 |
| 20260902122604 | 90 | 301 | 4.0 | 10.0 | 0.00 | 0.00 | 0.00 | 54 | 1018.1 |
| 20260902122504 | 90 | 302 | 5.0 | 10.0 | 0.00 | 0.00 | 0.00 | 54 | 1018.2 |
| 20260902122404 | 90 | 301 | 4.0 | 10.0 | 0.00 | 0.00 | 0.00 | 54 | 1018.2 |
| 20260902122305 | 90 | 300 | 4.0 | 10.0 | 0.00 | 0.00 | 0.00 | 54 | 1018.2 |
| 20260902122204 | 90 | 301 | 5.0 | 10.0 | 0.00 | 0.00 | 0.00 | 54 | 1018.2 |
| 20260902122103 | 90 | 302 | 5.0 | 11.0 | 0.00 | 0.00 | 0.00 | 54 | 1018.2 |
| 20260902122003 | 90 | 302 | 5.0 | 11.0 | 0.00 | 0.00 | 0.00 | 54 | 1018.2 |
| 20260902121903 | 90 | 301 | 5.0 | 11.0 | 0.00 | 0.00 | 0.00 | 54 | 1018.2 |
| 20260902121803 | 90 | 301 | 5.0 | 11.0 | 0.00 | 0.00 | 0.00 | 54 | 1018.3 |
| 20260902121703 | 90 | 301 | 5.0 | 11.0 | 0.00 | 0.00 | 0.00 | 54 | 1018.3 |
| 20260902121603 | 90 | 301 | 5.0 | 11.0 | 0.00 | 0.00 | 0.00 | 54 | 1018.3 |
| 20260902121504 | 90 | 300 | 5.0 | 11.0 | 0.00 | 0.00 | 0.00 | 54 | 1018.3 |
| 20260902121403 | 90 | 300 | 5.0 | 11.0 | 0.00 | 0.00 | 0.00 | 54 | 1018.3 |
| 20260902121303 | 90 | 300 | 5.0 | 11.0 | 0.00 | 0.00 | 0.00 | 54 | 1018.3 |
| 20260902121203 | 90 | 298 | 5.0 | 11.0 | 0.00 | 0.00 | 0.00 | 54 | 1018.2 |
| 20260902121103 | 90 | 297 | 4.0 | 11.0 | 0.00 | 0.00 | 0.00 | 54 | 1018.3 |
| 20260902121003 | 90 | 296 | 4.0 | 11.0 | 0.00 | 0.00 | 0.00 | 54 | 1018.3 |
| 20260902120903 | 90 | 295 | 4.0 | 10.0 | 0.00 | 0.00 | 0.00 | 54 | 1018.2 |
| 20260902120803 | 90 | 296 | 4.0 | 10.0 | 0.00 | 0.00 | 0.00 | 54 | 1018.3 |
| 20260902120703 | 90 | 296 | 4.0 | 10.0 | 0.00 | 0.00 | 0.00 | 54 | 1018.4 |
| 20260902120603 | 90 | 296 | 4.0 | 12.0 | 0.00 | 0.00 | 0.00 | 55 | 1018.4 |
| 20260902120503 | 90 | 297 | 4.0 | 12.0 | 0.00 | 0.00 | 0.00 | 55 | 1018.3 |
| 20260902120403 | 90 | 297 | 4.0 | 12.0 | 0.00 | 0.00 | 0.00 | 55 | 1018.4 |
| 20260902120303 | 90 | 297 | 4.0 | 12.0 | 0.00 | 0.00 | 0.00 | 54 | 1018.3 |
| 20260902120203 | 90 | 296 | 4.0 | 12.0 | 0.00 | 0.00 | 0.00 | 54 | 1018.4 |
| 20260902120103 | 90 | 296 | 4.0 | 12.0 | 0.00 | 0.00 | 0.00 | 54 | 1018.4 |
| 20260902120004 | 90 | 297 | 4.0 | 12.0 | 0.00 | 0.00 | 0.00 | 54 | 1018.4 |
| 20260902115903 | 90 | 297 | 4.0 | 12.0 | 0.00 | 0.00 | 0.00 | 54 | 1018.4 |
| 20260902115803 | 90 | 295 | 4.0 | 12.0 | 0.00 | 0.00 | 0.00 | 54 | 1018.4 |
| 20260902115703 | 90 | 294 | 4.0 | 12.0 | 0.00 | 0.00 | 0.00 | 55 | 1018.5 |
| 20260902115603 | 90 | 294 | 4.0 | 10.0 | 0.00 | 0.00 | 0.00 | 55 | 1018.3 |
| 20260902115503 | 90 | 296 | 4.0 | 10.0 | 0.00 | 0.00 | 0.00 | 55 | 1018.4 |
| 20260902115403 | 90 | 298 | 4.0 | 10.0 | 0.00 | 0.00 | 0.00 | 55 | 1018.4 |
| 20260902115307 | 90 | 299 | 5.0 | 13.0 | 0.00 | 0.00 | 0.00 | 55 | 1018.2 |
| 20260902115203 | 90 | 300 | 5.0 | 13.0 | 0.00 | 0.00 | 0.00 | 55 | 1018.2 |
| 20260902115103 | 90 | 302 | 5.0 | 13.0 | 0.00 | 0.00 | 0.00 | 55 | 1018.3 |
| 20260902115003 | 90 | 302 | 5.0 | 13.0 | 0.00 | 0.00 | 0.00 | 55 | 1018.3 |
| 20260902114903 | 90 | 302 | 5.0 | 13.0 | 0.00 | 0.00 | 0.00 | 55 | 1018.3 |
| 20260902114803 | 90 | 303 | 5.0 | 13.0 | 0.00 | 0.00 | 0.00 | 55 | 1018.3 |
| 20260902114703 | 90 | 303 | 5.0 | 13.0 | 0.00 | 0.00 | 0.00 | 55 | 1018.3 |
| 20260902114603 | 90 | 303 | 5.0 | 13.0 | 0.00 | 0.00 | 0.00 | 55 | 1018.3 |
| 20260902114503 | 90 | 302 | 5.0 | 13.0 | 0.00 | 0.00 | 0.00 | 55 | 1018.3 |
| 20260902114403 | 90 | 301 | 5.0 | 13.0 | 0.00 | 0.00 | 0.00 | 55 | 1018.4 |
| 20260902114303 | 90 | 300 | 5.0 | 12.0 | 0.00 | 0.00 | 0.00 | 56 | 1018.3 |
| 20260902114203 | 90 | 299 | 5.0 | 12.0 | 0.00 | 0.00 | 0.00 | 55 | 1018.4 |
| 20260902114103 | 90 | 299 | 6.0 | 12.0 | 0.00 | 0.00 | 0.00 | 56 | 1018.4 |
| 20260902114003 | 89 | 299 | 5.0 | 12.0 | 0.00 | 0.00 | 0.00 | 56 | 1018.3 |
| 20260902113903 | 89 | 300 | 5.0 | 12.0 | 0.00 | 0.00 | 0.00 | 55 | 1018.3 |
| 20260902113803 | 90 | 300 | 5.0 | 12.0 | 0.00 | 0.00 | 0.00 | 56 | 1018.4 |
| 20260902113703 | 89 | 300 | 5.0 | 12.0 | 0.00 | 0.00 | 0.00 | 55 | 1018.4 |
| 20260902113603 | 90 | 300 | 5.0 | 12.0 | 0.00 | 0.00 | 0.00 | 55 | 1018.4 |
| 20260902113503 | 90 | 301 | 6.0 | 13.0 | 0.00 | 0.00 | 0.00 | 55 | 1018.3 |
| 20260902113403 | 90 | 301 | 6.0 | 13.0 | 0.00 | 0.00 | 0.00 | 55 | 1018.3 |
| 20260902113303 | 90 | 301 | 5.0 | 13.0 | 0.00 | 0.00 | 0.00 | 55 | 1018.3 |
| 20260902113203 | 90 | 301 | 5.0 | 13.0 | 0.00 | 0.00 | 0.00 | 55 | 1018.3 |
| 20260902113103 | 90 | 300 | 5.0 | 14.0 | 0.00 | 0.00 | 0.00 | 55 | 1018.3 |
| 20260902113003 | 90 | 300 | 5.0 | 14.0 | 0.00 | 0.00 | 0.00 | 55 | 1018.3 |
| 20260902112903 | 90 | 300 | 5.0 | 14.0 | 0.00 | 0.00 | 0.00 | 55 | 1018.3 |
| 20260902112803 | 90 | 300 | 5.0 | 14.0 | 0.00 | 0.00 | 0.00 | 54 | 1018.3 |
| 20260902112703 | 90 | 301 | 4.0 | 14.0 | 0.00 | 0.00 | 0.00 | 54 | 1018.4 |
| 20260902112603 | 90 | 302 | 4.0 | 14.0 | 0.00 | 0.00 | 0.00 | 54 | 1018.4 |
| 20260902112503 | 90 | 302 | 3.0 | 14.0 | 0.00 | 0.00 | 0.00 | 55 | 1018.3 |
| 20260902112403 | 90 | 302 | 3.0 | 14.0 | 0.00 | 0.00 | 0.00 | 55 | 1018.4 |
| 20260902112305 | 90 | 302 | 3.0 | 14.0 | 0.00 | 0.00 | 0.00 | 55 | 1018.4 |
| 20260902112203 | 90 | 304 | 2.0 | 14.0 | 0.00 | 0.00 | 0.00 | 55 | 1018.4 |
| 20260902112103 | 90 | 306 | 2.0 | 9.0 | 0.00 | 0.00 | 0.00 | 56 | 1018.4 |
| 20260902112003 | 90 | 305 | 2.0 | 8.0 | 0.00 | 0.00 | 0.00 | 56 | 1018.4 |
| 20260902111903 | 90 | 304 | 2.0 | 8.0 | 0.00 | 0.00 | 0.00 | 56 | 1018.3 |
| 20260902111803 | 90 | 301 | 2.0 | 9.0 | 0.00 | 0.00 | 0.00 | 56 | 1018.3 |
| 20260902111703 | 90 | 302 | 2.0 | 9.0 | 0.00 | 0.00 | 0.00 | 56 | 1018.3 |
| 20260902111603 | 89 | 299 | 3.0 | 9.0 | 0.00 | 0.00 | 0.00 | 56 | 1018.3 |
| 20260902111503 | 89 | 297 | 3.0 | 9.0 | 0.00 | 0.00 | 0.00 | 56 | 1018.4 |
| 20260902111403 | 89 | 297 | 3.0 | 9.0 | 0.00 | 0.00 | 0.00 | 56 | 1018.4 |
| 20260902111303 | 90 | 297 | 3.0 | 9.0 | 0.00 | 0.00 | 0.00 | 56 | 1018.4 |
| 20260902111203 | 89 | 296 | 3.0 | 9.0 | 0.00 | 0.00 | 0.00 | 56 | 1018.4 |
| 20260902111103 | 89 | 297 | 3.0 | 9.0 | 0.00 | 0.00 | 0.00 | 56 | 1018.4 |
| 20260902111003 | 89 | 295 | 3.0 | 9.0 | 0.00 | 0.00 | 0.00 | 56 | 1018.4 |
| 20260902110903 | 89 | 296 | 3.0 | 9.0 | 0.00 | 0.00 | 0.00 | 56 | 1018.5 |
| 20260902110803 | 89 | 297 | 3.0 | 9.0 | 0.00 | 0.00 | 0.00 | 56 | 1018.5 |
| 20260902110703 | 89 | 296 | 3.0 | 9.0 | 0.00 | 0.00 | 0.00 | 56 | 1018.6 |
| 20260902110603 | 89 | 296 | 3.0 | 8.0 | 0.00 | 0.00 | 0.00 | 57 | 1018.6 |
| 20260902110503 | 89 | 297 | 3.0 | 8.0 | 0.00 | 0.00 | 0.00 | 57 | 1018.6 |
| 20260902110403 | 89 | 297 | 3.0 | 9.0 | 0.00 | 0.00 | 0.00 | 57 | 1018.6 |
| 20260902110303 | 89 | 298 | 3.0 | 9.0 | 0.00 | 0.00 | 0.00 | 57 | 1018.6 |
| 20260902110203 | 89 | 298 | 3.0 | 9.0 | 0.00 | 0.00 | 0.00 | 57 | 1018.6 |
| 20260902110004 | 89 | 297 | 4.0 | 9.0 | 0.00 | 0.00 | 0.00 | 57 | 1018.6 |
| 20260902105903 | 89 | 297 | 4.0 | 9.0 | 0.00 | 0.00 | 0.00 | 57 | 1018.6 |
| 20260902105803 | 89 | 297 | 3.0 | 9.0 | 0.00 | 0.00 | 0.00 | 57 | 1018.5 |
| 20260902105703 | 89 | 297 | 3.0 | 9.0 | 0.00 | 0.00 | 0.00 | 57 | 1018.6 |
| 20260902105603 | 89 | 298 | 4.0 | 9.0 | 0.00 | 0.00 | 0.00 | 57 | 1018.6 |
| 20260902105503 | 89 | 298 | 3.0 | 9.0 | 0.00 | 0.00 | 0.00 | 57 | 1018.5 |
| 20260902105403 | 89 | 299 | 4.0 | 8.0 | 0.00 | 0.00 | 0.00 | 57 | 1018.6 |
| 20260902105306 | 89 | 299 | 4.0 | 8.0 | 0.00 | 0.00 | 0.00 | 57 | 1018.6 |
| 20260902105203 | 89 | 299 | 4.0 | 11.0 | 0.00 | 0.00 | 0.00 | 57 | 1018.6 |
| 20260902105103 | 89 | 300 | 5.0 | 11.0 | 0.00 | 0.00 | 0.00 | 57 | 1018.7 |
| 20260902105003 | 89 | 299 | 5.0 | 11.0 | 0.00 | 0.00 | 0.00 | 57 | 1018.6 |
| 20260902104903 | 89 | 300 | 5.0 | 11.0 | 0.00 | 0.00 | 0.00 | 57 | 1018.6 |
| 20260902104804 | 89 | 298 | 5.0 | 11.0 | 0.00 | 0.00 | 0.00 | 57 | 1018.7 |
| 20260902104704 | 89 | 299 | 6.0 | 11.0 | 0.00 | 0.00 | 0.00 | 57 | 1018.7 |
| 20260902104604 | 89 | 299 | 6.0 | 11.0 | 0.00 | 0.00 | 0.00 | 57 | 1018.7 |
| 20260902104504 | 89 | 299 | 6.0 | 11.0 | 0.00 | 0.00 | 0.00 | 57 | 1018.6 |
| 20260902104404 | 89 | 299 | 6.0 | 11.0 | 0.00 | 0.00 | 0.00 | 57 | 1018.7 |
| 20260902104304 | 89 | 299 | 6.0 | 12.0 | 0.00 | 0.00 | 0.00 | 57 | 1018.7 |
| 20260902104204 | 89 | 300 | 6.0 | 12.0 | 0.00 | 0.00 | 0.00 | 57 | 1018.8 |
| 20260902104104 | 89 | 300 | 5.0 | 12.0 | 0.00 | 0.00 | 0.00 | 57 | 1018.7 |
| 20260902104004 | 89 | 301 | 5.0 | 12.0 | 0.00 | 0.00 | 0.00 | 58 | 1018.8 |
| 20260902103904 | 89 | 302 | 5.0 | 12.0 | 0.00 | 0.00 | 0.00 | 58 | 1018.8 |
| 20260902103804 | 89 | 303 | 4.0 | 12.0 | 0.00 | 0.00 | 0.00 | 58 | 1018.9 |
| 20260902103704 | 89 | 303 | 4.0 | 12.0 | 0.00 | 0.00 | 0.00 | 58 | 1018.8 |
| 20260902103604 | 89 | 302 | 3.0 | 12.0 | 0.00 | 0.00 | 0.00 | 58 | 1018.8 |
| 20260902103504 | 89 | 303 | 4.0 | 12.0 | 0.00 | 0.00 | 0.00 | 58 | 1018.8 |
| 20260902103404 | 89 | 304 | 4.0 | 13.0 | 0.00 | 0.00 | 0.00 | 58 | 1018.8 |
| 20260902103304 | 89 | 301 | 4.0 | 13.0 | 0.00 | 0.00 | 0.00 | 59 | 1018.8 |
| 20260902103204 | 89 | 303 | 4.0 | 13.0 | 0.00 | 0.00 | 0.00 | 59 | 1018.9 |
| 20260902103104 | 89 | 302 | 5.0 | 13.0 | 0.00 | 0.00 | 0.00 | 59 | 1018.8 |
| 20260902103004 | 88 | 301 | 5.0 | 13.0 | 0.00 | 0.00 | 0.00 | 59 | 1018.9 |
| 20260902102904 | 88 | 300 | 6.0 | 13.0 | 0.00 | 0.00 | 0.00 | 59 | 1018.9 |
| 20260902102804 | 88 | 299 | 6.0 | 13.0 | 0.00 | 0.00 | 0.00 | 59 | 1018.8 |
| 20260902102704 | 88 | 299 | 7.0 | 17.0 | 0.00 | 0.00 | 0.00 | 59 | 1018.8 |
| 20260902102604 | 88 | 299 | 7.0 | 17.0 | 0.00 | 0.00 | 0.00 | 59 | 1018.9 |
| 20260902102504 | 88 | 299 | 7.0 | 17.0 | 0.00 | 0.00 | 0.00 | 59 | 1018.9 |
| 20260902102404 | 89 | 298 | 7.0 | 17.0 | 0.00 | 0.00 | 0.00 | 59 | 1018.9 |
| 20260902102307 | 89 | 298 | 7.0 | 17.0 | 0.00 | 0.00 | 0.00 | 59 | 1018.9 |
| 20260902102204 | 89 | 298 | 7.0 | 17.0 | 0.00 | 0.00 | 0.00 | 59 | 1018.9 |
| 20260902102104 | 89 | 297 | 7.0 | 17.0 | 0.00 | 0.00 | 0.00 | 59 | 1018.8 |
| 20260902102004 | 89 | 297 | 7.0 | 17.0 | 0.00 | 0.00 | 0.00 | 59 | 1018.9 |
| 20260902101904 | 89 | 297 | 7.0 | 17.0 | 0.00 | 0.00 | 0.00 | 59 | 1018.9 |
| 20260902101804 | 89 | 298 | 6.0 | 17.0 | 0.00 | 0.00 | 0.00 | 59 | 1019.0 |
| 20260902101704 | 89 | 298 | 6.0 | 15.0 | 0.00 | 0.00 | 0.00 | 59 | 1018.9 |
| 20260902101604 | 89 | 299 | 6.0 | 15.0 | 0.00 | 0.00 | 0.00 | 59 | 1018.8 |
| 20260902101504 | 89 | 298 | 6.0 | 15.0 | 0.00 | 0.00 | 0.00 | 59 | 1018.8 |
| 20260902101404 | 89 | 298 | 6.0 | 15.0 | 0.00 | 0.00 | 0.00 | 59 | 1018.8 |
| 20260902101304 | 89 | 298 | 6.0 | 15.0 | 0.00 | 0.00 | 0.00 | 59 | 1018.9 |
| 20260902101204 | 89 | 297 | 5.0 | 15.0 | 0.00 | 0.00 | 0.00 | 59 | 1018.8 |
| 20260902101104 | 89 | 297 | 5.0 | 15.0 | 0.00 | 0.00 | 0.00 | 59 | 1018.7 |
| 20260902101004 | 89 | 298 | 5.0 | 15.0 | 0.00 | 0.00 | 0.00 | 59 | 1018.8 |
| 20260902100904 | 89 | 297 | 5.0 | 15.0 | 0.00 | 0.00 | 0.00 | 59 | 1018.9 |
| 20260902100804 | 89 | 298 | 4.0 | 11.0 | 0.00 | 0.00 | 0.00 | 59 | 1018.8 |
| 20260902100703 | 89 | 297 | 4.0 | 11.0 | 0.00 | 0.00 | 0.00 | 59 | 1018.8 |
| 20260902100603 | 89 | 297 | 4.0 | 11.0 | 0.00 | 0.00 | 0.00 | 59 | 1018.8 |
| 20260902100504 | 89 | 297 | 3.0 | 11.0 | 0.00 | 0.00 | 0.00 | 59 | 1018.9 |
| 20260902100403 | 89 | 297 | 3.0 | 11.0 | 0.00 | 0.00 | 0.00 | 59 | 1018.9 |
| 20260902100304 | 89 | 297 | 3.0 | 9.0 | 0.00 | 0.00 | 0.00 | 59 | 1018.9 |
| 20260902100204 | 89 | 299 | 3.0 | 9.0 | 0.00 | 0.00 | 0.00 | 60 | 1018.9 |
| 20260902100104 | 89 | 299 | 3.0 | 11.0 | 0.00 | 0.00 | 0.00 | 59 | 1018.9 |
| 20260902100006 | 89 | 300 | 3.0 | 11.0 | 0.00 | 0.00 | 0.00 | 60 | 1018.9 |
| 20260902095903 | 89 | 299 | 4.0 | 11.0 | 0.00 | 0.00 | 0.00 | 60 | 1018.9 |
| 20260902095804 | 89 | 298 | 4.0 | 11.0 | 0.00 | 0.00 | 0.00 | 60 | 1018.9 |
| 20260902095703 | 89 | 298 | 4.0 | 11.0 | 0.00 | 0.00 | 0.00 | 60 | 1018.9 |
| 20260902095603 | 89 | 297 | 4.0 | 11.0 | 0.00 | 0.00 | 0.00 | 60 | 1018.9 |
| 20260902095503 | 89 | 297 | 4.0 | 11.0 | 0.00 | 0.00 | 0.00 | 60 | 1018.9 |
| 20260902095403 | 89 | 296 | 4.0 | 11.0 | 0.00 | 0.00 | 0.00 | 60 | 1018.8 |
| 20260902095306 | 89 | 297 | 4.0 | 12.0 | 0.00 | 0.00 | 0.00 | 60 | 1018.9 |
| 20260902095203 | 89 | 297 | 5.0 | 12.0 | 0.00 | 0.00 | 0.00 | 60 | 1018.9 |
| 20260902095103 | 89 | 297 | 4.0 | 12.0 | 0.00 | 0.00 | 0.00 | 60 | 1018.9 |
| 20260902095003 | 89 | 296 | 4.0 | 12.0 | 0.00 | 0.00 | 0.00 | 60 | 1018.9 |
| 20260902094903 | 89 | 297 | 4.0 | 12.0 | 0.00 | 0.00 | 0.00 | 60 | 1019.0 |
| 20260902094804 | 89 | 297 | 4.0 | 12.0 | 0.00 | 0.00 | 0.00 | 60 | 1018.9 |
| 20260902094703 | 89 | 297 | 4.0 | 12.0 | 0.00 | 0.00 | 0.00 | 60 | 1018.9 |
| 20260902094603 | 89 | 296 | 4.0 | 12.0 | 0.00 | 0.00 | 0.00 | 60 | 1018.9 |
| 20260902094503 | 89 | 296 | 4.0 | 12.0 | 0.00 | 0.00 | 0.00 | 60 | 1018.9 |
| 20260902094403 | 88 | 297 | 4.0 | 12.0 | 0.00 | 0.00 | 0.00 | 61 | 1018.9 |
| 20260902094303 | 88 | 297 | 4.0 | 9.0 | 0.00 | 0.00 | 0.00 | 61 | 1018.8 |
| 20260902094203 | 89 | 297 | 4.0 | 9.0 | 0.00 | 0.00 | 0.00 | 61 | 1018.9 |
| 20260902094103 | 88 | 297 | 3.0 | 9.0 | 0.00 | 0.00 | 0.00 | 61 | 1018.9 |
| 20260902094003 | 88 | 298 | 3.0 | 9.0 | 0.00 | 0.00 | 0.00 | 61 | 1018.9 |
| 20260902093903 | 88 | 298 | 3.0 | 9.0 | 0.00 | 0.00 | 0.00 | 61 | 1019.0 |
| 20260902093803 | 88 | 299 | 3.0 | 9.0 | 0.00 | 0.00 | 0.00 | 61 | 1018.8 |
| 20260902093703 | 88 | 298 | 4.0 | 11.0 | 0.00 | 0.00 | 0.00 | 61 | 1018.8 |
| 20260902093603 | 88 | 298 | 4.0 | 11.0 | 0.00 | 0.00 | 0.00 | 61 | 1018.8 |
| 20260902093503 | 88 | 301 | 4.0 | 12.0 | 0.00 | 0.00 | 0.00 | 61 | 1018.9 |
| 20260902093403 | 88 | 300 | 4.0 | 12.0 | 0.00 | 0.00 | 0.00 | 61 | 1018.8 |
| 20260902093303 | 88 | 299 | 4.0 | 12.0 | 0.00 | 0.00 | 0.00 | 61 | 1018.9 |
| 20260902093203 | 88 | 299 | 4.0 | 12.0 | 0.00 | 0.00 | 0.00 | 61 | 1018.8 |
| 20260902093103 | 88 | 298 | 4.0 | 12.0 | 0.00 | 0.00 | 0.00 | 60 | 1018.7 |
| 20260902093004 | 88 | 298 | 5.0 | 12.0 | 0.00 | 0.00 | 0.00 | 60 | 1018.7 |
| 20260902092903 | 88 | 298 | 5.0 | 12.0 | 0.00 | 0.00 | 0.00 | 61 | 1018.8 |
| 20260902092803 | 88 | 298 | 5.0 | 12.0 | 0.00 | 0.00 | 0.00 | 60 | 1018.9 |
| 20260902092703 | 88 | 299 | 4.0 | 12.0 | 0.00 | 0.00 | 0.00 | 61 | 1018.9 |
| 20260902092603 | 88 | 298 | 4.0 | 12.0 | 0.00 | 0.00 | 0.00 | 61 | 1018.9 |
| 20260902092503 | 88 | 297 | 4.0 | 10.0 | 0.00 | 0.00 | 0.00 | 61 | 1018.9 |
| 20260902092403 | 88 | 298 | 4.0 | 10.0 | 0.00 | 0.00 | 0.00 | 61 | 1018.9 |
| 20260902092305 | 88 | 297 | 4.0 | 10.0 | 0.00 | 0.00 | 0.00 | 61 | 1018.9 |
| 20260902092203 | 88 | 296 | 4.0 | 10.0 | 0.00 | 0.00 | 0.00 | 61 | 1018.9 |
| 20260902092103 | 88 | 297 | 5.0 | 12.0 | 0.00 | 0.00 | 0.00 | 61 | 1019.0 |
| 20260902092003 | 88 | 297 | 5.0 | 12.0 | 0.00 | 0.00 | 0.00 | 61 | 1019.0 |
| 20260902091903 | 88 | 296 | 5.0 | 12.0 | 0.00 | 0.00 | 0.00 | 61 | 1018.9 |
| 20260902091803 | 88 | 296 | 5.0 | 12.0 | 0.00 | 0.00 | 0.00 | 61 | 1018.8 |
| 20260902091703 | 88 | 297 | 5.0 | 12.0 | 0.00 | 0.00 | 0.00 | 61 | 1018.9 |
| 20260902091603 | 88 | 299 | 5.0 | 12.0 | 0.00 | 0.00 | 0.00 | 61 | 1018.9 |
| 20260902091503 | 88 | 299 | 5.0 | 13.0 | 0.00 | 0.00 | 0.00 | 61 | 1019.0 |
| 20260902091403 | 88 | 299 | 5.0 | 15.0 | 0.00 | 0.00 | 0.00 | 61 | 1019.0 |
| 20260902091303 | 88 | 300 | 5.0 | 15.0 | 0.00 | 0.00 | 0.00 | 61 | 1019.0 |
| 20260902091203 | 88 | 301 | 5.0 | 15.0 | 0.00 | 0.00 | 0.00 | 61 | 1019.0 |
| 20260902091103 | 88 | 302 | 5.0 | 15.0 | 0.00 | 0.00 | 0.00 | 62 | 1019.0 |
| 20260902091003 | 88 | 304 | 5.0 | 15.0 | 0.00 | 0.00 | 0.00 | 62 | 1018.9 |
| 20260902090903 | 88 | 302 | 6.0 | 15.0 | 0.00 | 0.00 | 0.00 | 62 | 1018.9 |
| 20260902090803 | 88 | 303 | 6.0 | 15.0 | 0.00 | 0.00 | 0.00 | 62 | 1018.9 |
| 20260902090703 | 88 | 303 | 6.0 | 15.0 | 0.00 | 0.00 | 0.00 | 62 | 1019.0 |
| 20260902090603 | 88 | 303 | 5.0 | 15.0 | 0.00 | 0.00 | 0.00 | 62 | 1019.0 |
| 20260902090503 | 88 | 303 | 5.0 | 15.0 | 0.00 | 0.00 | 0.00 | 61 | 1018.9 |
| 20260902090403 | 88 | 302 | 5.0 | 12.0 | 0.00 | 0.00 | 0.00 | 62 | 1018.9 |
| 20260902090303 | 88 | 302 | 5.0 | 12.0 | 0.00 | 0.00 | 0.00 | 62 | 1018.9 |
| 20260902090203 | 88 | 302 | 6.0 | 12.0 | 0.00 | 0.00 | 0.00 | 61 | 1019.0 |
| 20260902090004 | 88 | 301 | 6.0 | 12.0 | 0.00 | 0.00 | 0.00 | 61 | 1018.9 |
| 20260902085903 | 88 | 302 | 6.0 | 11.0 | 0.00 | 0.00 | 0.00 | 62 | 1018.9 |
| 20260902085803 | 88 | 301 | 6.0 | 11.0 | 0.00 | 0.00 | 0.00 | 62 | 1018.8 |
| 20260902085703 | 88 | 301 | 6.0 | 11.0 | 0.00 | 0.00 | 0.00 | 62 | 1018.8 |
| 20260902085603 | 87 | 301 | 6.0 | 11.0 | 0.00 | 0.00 | 0.00 | 62 | 1018.9 |
| 20260902085503 | 87 | 302 | 6.0 | 11.0 | 0.00 | 0.00 | 0.00 | 61 | 1018.9 |
| 20260902085403 | 87 | 302 | 6.0 | 11.0 | 0.00 | 0.00 | 0.00 | 61 | 1018.9 |
| 20260902085306 | 87 | 302 | 6.0 | 11.0 | 0.00 | 0.00 | 0.00 | 61 | 1018.9 |
| 20260902085203 | 87 | 301 | 6.0 | 13.0 | 0.00 | 0.00 | 0.00 | 61 | 1018.9 |
| 20260902085103 | 87 | 301 | 6.0 | 13.0 | 0.00 | 0.00 | 0.00 | 62 | 1018.8 |
| 20260902085003 | 87 | 301 | 5.0 | 13.0 | 0.00 | 0.00 | 0.00 | 62 | 1018.8 |
| 20260902084903 | 87 | 301 | 5.0 | 13.0 | 0.00 | 0.00 | 0.00 | 62 | 1018.7 |
| 20260902084803 | 87 | 301 | 5.0 | 13.0 | 0.00 | 0.00 | 0.00 | 62 | 1018.7 |
| 20260902084703 | 87 | 300 | 5.0 | 13.0 | 0.00 | 0.00 | 0.00 | 62 | 1018.6 |
| 20260902084603 | 87 | 299 | 6.0 | 13.0 | 0.00 | 0.00 | 0.00 | 62 | 1018.6 |
| 20260902084503 | 87 | 298 | 5.0 | 13.0 | 0.00 | 0.00 | 0.00 | 62 | 1018.7 |
| 20260902084403 | 87 | 297 | 5.0 | 13.0 | 0.00 | 0.00 | 0.00 | 62 | 1018.6 |
| 20260902084303 | 87 | 296 | 5.0 | 13.0 | 0.00 | 0.00 | 0.00 | 61 | 1018.6 |
| 20260902084203 | 87 | 297 | 5.0 | 11.0 | 0.00 | 0.00 | 0.00 | 62 | 1018.7 |
| 20260902084103 | 87 | 294 | 4.0 | 9.0 | 0.00 | 0.00 | 0.00 | 61 | 1018.6 |
| 20260902084003 | 87 | 293 | 4.0 | 9.0 | 0.00 | 0.00 | 0.00 | 61 | 1018.6 |
| 20260902083903 | 87 | 294 | 4.0 | 9.0 | 0.00 | 0.00 | 0.00 | 61 | 1018.6 |
| 20260902083803 | 88 | 295 | 3.0 | 8.0 | 0.00 | 0.00 | 0.00 | 61 | 1018.7 |
| 20260902083703 | 88 | 294 | 4.0 | 9.0 | 0.00 | 0.00 | 0.00 | 61 | 1018.7 |
| 20260902083603 | 88 | 296 | 3.0 | 9.0 | 0.00 | 0.00 | 0.00 | 61 | 1018.7 |
| 20260902083503 | 88 | 297 | 4.0 | 9.0 | 0.00 | 0.00 | 0.00 | 61 | 1018.6 |
| 20260902083403 | 88 | 298 | 4.0 | 9.0 | 0.00 | 0.00 | 0.00 | 61 | 1018.7 |
| 20260902083303 | 88 | 299 | 3.0 | 9.0 | 0.00 | 0.00 | 0.00 | 62 | 1018.7 |
| 20260902083203 | 88 | 299 | 3.0 | 9.0 | 0.00 | 0.00 | 0.00 | 62 | 1018.6 |
| 20260902083103 | 88 | 300 | 3.0 | 9.0 | 0.00 | 0.00 | 0.00 | 62 | 1018.6 |
| 20260902083003 | 88 | 300 | 3.0 | 9.0 | 0.00 | 0.00 | 0.00 | 62 | 1018.6 |
| 20260902082903 | 88 | 300 | 3.0 | 9.0 | 0.00 | 0.00 | 0.00 | 62 | 1018.6 |
| 20260902082803 | 87 | 299 | 3.0 | 9.0 | 0.00 | 0.00 | 0.00 | 62 | 1018.6 |
| 20260902082703 | 87 | 300 | 3.0 | 7.0 | 0.00 | 0.00 | 0.00 | 62 | 1018.7 |
| 20260902082603 | 87 | 300 | 3.0 | 7.0 | 0.00 | 0.00 | 0.00 | 62 | 1018.6 |
| 20260902082503 | 87 | 298 | 3.0 | 7.0 | 0.00 | 0.00 | 0.00 | 62 | 1018.6 |
| 20260902082403 | 88 | 299 | 3.0 | 8.0 | 0.00 | 0.00 | 0.00 | 62 | 1018.7 |
| 20260902082308 | 87 | 298 | 3.0 | 8.0 | 0.00 | 0.00 | 0.00 | 62 | 1018.7 |
| 20260902082203 | 87 | 299 | 3.0 | 8.0 | 0.00 | 0.00 | 0.00 | 62 | 1018.7 |
| 20260902082103 | 87 | 298 | 3.0 | 8.0 | 0.00 | 0.00 | 0.00 | 62 | 1018.6 |
| 20260902082003 | 87 | 300 | 3.0 | 8.0 | 0.00 | 0.00 | 0.00 | 62 | 1018.7 |
| 20260902081903 | 87 | 299 | 3.0 | 8.0 | 0.00 | 0.00 | 0.00 | 62 | 1018.6 |
| 20260902081803 | 87 | 301 | 3.0 | 8.0 | 0.00 | 0.00 | 0.00 | 62 | 1018.6 |
| 20260902081703 | 87 | 301 | 3.0 | 8.0 | 0.00 | 0.00 | 0.00 | 62 | 1018.6 |
| 20260902081604 | 87 | 299 | 3.0 | 8.0 | 0.00 | 0.00 | 0.00 | 62 | 1018.6 |
| 20260902081504 | 87 | 303 | 3.0 | 8.0 | 0.00 | 0.00 | 0.00 | 62 | 1018.6 |
| 20260902081404 | 87 | 301 | 3.0 | 11.0 | 0.00 | 0.00 | 0.00 | 62 | 1018.5 |
| 20260902081304 | 87 | 300 | 4.0 | 11.0 | 0.00 | 0.00 | 0.00 | 62 | 1018.6 |
| 20260902081204 | 87 | 300 | 4.0 | 11.0 | 0.00 | 0.00 | 0.00 | 62 | 1018.6 |
| 20260902081104 | 87 | 300 | 4.0 | 11.0 | 0.00 | 0.00 | 0.00 | 62 | 1018.5 |
| 20260902081004 | 87 | 297 | 5.0 | 11.0 | 0.00 | 0.00 | 0.00 | 62 | 1018.5 |
| 20260902080904 | 87 | 297 | 5.0 | 14.0 | 0.00 | 0.00 | 0.00 | 62 | 1018.6 |
| 20260902080804 | 87 | 296 | 5.0 | 14.0 | 0.00 | 0.00 | 0.00 | 62 | 1018.5 |
| 20260902080704 | 87 | 296 | 6.0 | 14.0 | 0.00 | 0.00 | 0.00 | 62 | 1018.5 |
| 20260902080604 | 87 | 296 | 6.0 | 14.0 | 0.00 | 0.00 | 0.00 | 62 | 1018.5 |
| 20260902080504 | 87 | 295 | 5.0 | 14.0 | 0.00 | 0.00 | 0.00 | 62 | 1018.6 |
| 20260902080404 | 87 | 294 | 4.0 | 14.0 | 0.00 | 0.00 | 0.00 | 62 | 1018.4 |
| 20260902080304 | 87 | 294 | 4.0 | 14.0 | 0.00 | 0.00 | 0.00 | 62 | 1018.4 |
| 20260902080204 | 87 | 294 | 4.0 | 14.0 | 0.00 | 0.00 | 0.00 | 62 | 1018.5 |
| 20260902080104 | 87 | 295 | 4.0 | 14.0 | 0.00 | 0.00 | 0.00 | 62 | 1018.4 |
| 20260902080004 | 87 | 296 | 4.0 | 14.0 | 0.00 | 0.00 | 0.00 | 62 | 1018.4 |
| 20260902075904 | 87 | 297 | 4.0 | 10.0 | 0.00 | 0.00 | 0.00 | 62 | 1018.4 |
| 20260902075804 | 87 | 298 | 4.0 | 10.0 | 0.00 | 0.00 | 0.00 | 63 | 1018.4 |
| 20260902075704 | 87 | 296 | 4.0 | 10.0 | 0.00 | 0.00 | 0.00 | 63 | 1018.3 |
| 20260902075604 | 87 | 295 | 4.0 | 10.0 | 0.00 | 0.00 | 0.00 | 63 | 1018.3 |
| 20260902075504 | 87 | 295 | 4.0 | 10.0 | 0.00 | 0.00 | 0.00 | 62 | 1018.3 |
| 20260902075404 | 87 | 295 | 4.0 | 10.0 | 0.00 | 0.00 | 0.00 | 62 | 1018.3 |
| 20260902075306 | 87 | 296 | 5.0 | 10.0 | 0.00 | 0.00 | 0.00 | 62 | 1018.3 |
| 20260902075204 | 87 | 296 | 5.0 | 10.0 | 0.00 | 0.00 | 0.00 | 62 | 1018.3 |
| 20260902075104 | 87 | 295 | 5.0 | 10.0 | 0.00 | 0.00 | 0.00 | 62 | 1018.3 |
| 20260902075004 | 87 | 295 | 5.0 | 10.0 | 0.00 | 0.00 | 0.00 | 62 | 1018.3 |
| 20260902074904 | 87 | 294 | 4.0 | 9.0 | 0.00 | 0.00 | 0.00 | 62 | 1018.3 |
| 20260902074804 | 87 | 293 | 4.0 | 9.0 | 0.00 | 0.00 | 0.00 | 62 | 1018.3 |
| 20260902074704 | 87 | 295 | 4.0 | 9.0 | 0.00 | 0.00 | 0.00 | 62 | 1018.3 |
| 20260902074604 | 87 | 295 | 4.0 | 9.0 | 0.00 | 0.00 | 0.00 | 62 | 1018.3 |
| 20260902074504 | 87 | 296 | 4.0 | 9.0 | 0.00 | 0.00 | 0.00 | 62 | 1018.3 |
| 20260902074404 | 87 | 295 | 4.0 | 9.0 | 0.00 | 0.00 | 0.00 | 62 | 1018.4 |
| 20260902074304 | 87 | 294 | 3.0 | 9.0 | 0.00 | 0.00 | 0.00 | 62 | 1018.5 |
| 20260902074204 | 87 | 293 | 3.0 | 9.0 | 0.00 | 0.00 | 0.00 | 62 | 1018.3 |
| 20260902074104 | 87 | 293 | 3.0 | 11.0 | 0.00 | 0.00 | 0.00 | 62 | 1018.3 |
| 20260902074004 | 87 | 292 | 4.0 | 12.0 | 0.00 | 0.00 | 0.00 | 62 | 1018.2 |
| 20260902073904 | 87 | 293 | 4.0 | 12.0 | 0.00 | 0.00 | 0.00 | 63 | 1018.3 |
| 20260902073804 | 87 | 295 | 4.0 | 12.0 | 0.00 | 0.00 | 0.00 | 62 | 1018.2 |
| 20260902073704 | 87 | 295 | 4.0 | 12.0 | 0.00 | 0.00 | 0.00 | 62 | 1018.3 |
| 20260902073604 | 87 | 296 | 4.0 | 12.0 | 0.00 | 0.00 | 0.00 | 62 | 1018.2 |
| 20260902073504 | 87 | 294 | 5.0 | 12.0 | 0.00 | 0.00 | 0.00 | 62 | 1018.0 |
| 20260902073404 | 87 | 295 | 5.0 | 12.0 | 0.00 | 0.00 | 0.00 | 62 | 1018.0 |
| 20260902073304 | 88 | 296 | 5.0 | 12.0 | 0.00 | 0.00 | 0.00 | 62 | 1017.9 |
| 20260902073204 | 88 | 296 | 5.0 | 12.0 | 0.00 | 0.00 | 0.00 | 62 | 1018.0 |
| 20260902073104 | 88 | 295 | 5.0 | 12.0 | 0.00 | 0.00 | 0.00 | 62 | 1018.1 |
| 20260902073004 | 88 | 296 | 5.0 | 12.0 | 0.00 | 0.00 | 0.00 | 62 | 1018.0 |
| 20260902072904 | 88 | 296 | 5.0 | 12.0 | 0.00 | 0.00 | 0.00 | 62 | 1018.1 |
| 20260902072803 | 88 | 295 | 5.0 | 12.0 | 0.00 | 0.00 | 0.00 | 62 | 1018.0 |
| 20260902072704 | 88 | 294 | 4.0 | 12.0 | 0.00 | 0.00 | 0.00 | 62 | 1018.0 |
| 20260902072604 | 88 | 295 | 5.0 | 12.0 | 0.00 | 0.00 | 0.00 | 62 | 1018.1 |
| 20260902072504 | 88 | 295 | 4.0 | 12.0 | 0.00 | 0.00 | 0.00 | 62 | 1018.0 |
| 20260902072403 | 88 | 295 | 4.0 | 12.0 | 0.00 | 0.00 | 0.00 | 62 | 1018.0 |
| 20260902072309 | 88 | 294 | 4.0 | 12.0 | 0.00 | 0.00 | 0.00 | 62 | 1018.0 |
| 20260902072203 | 88 | 295 | 3.0 | 10.0 | 0.00 | 0.00 | 0.00 | 62 | 1017.9 |
| 20260902072103 | 88 | 297 | 3.0 | 10.0 | 0.00 | 0.00 | 0.00 | 62 | 1018.0 |
| 20260902072003 | 88 | 298 | 3.0 | 10.0 | 0.00 | 0.00 | 0.00 | 62 | 1017.9 |
| 20260902071903 | 88 | 300 | 3.0 | 10.0 | 0.00 | 0.00 | 0.00 | 62 | 1017.9 |
| 20260902071803 | 88 | 300 | 3.0 | 10.0 | 0.00 | 0.00 | 0.00 | 62 | 1018.0 |
| 20260902071703 | 88 | 300 | 2.0 | 10.0 | 0.00 | 0.00 | 0.00 | 62 | 1018.0 |
| 20260902071603 | 88 | 299 | 2.0 | 8.0 | 0.00 | 0.00 | 0.00 | 63 | 1017.9 |
| 20260902071503 | 88 | 300 | 2.0 | 8.0 | 0.00 | 0.00 | 0.00 | 63 | 1017.9 |
| 20260902071403 | 88 | 298 | 3.0 | 11.0 | 0.00 | 0.00 | 0.00 | 63 | 1017.9 |
| 20260902071303 | 87 | 296 | 3.0 | 11.0 | 0.00 | 0.00 | 0.00 | 63 | 1017.9 |
| 20260902071203 | 87 | 295 | 4.0 | 11.0 | 0.00 | 0.00 | 0.00 | 63 | 1017.9 |
| 20260902071103 | 88 | 294 | 4.0 | 11.0 | 0.00 | 0.00 | 0.00 | 62 | 1018.0 |
| 20260902071003 | 88 | 295 | 4.0 | 11.0 | 0.00 | 0.00 | 0.00 | 62 | 1018.0 |
| 20260902070903 | 87 | 296 | 4.0 | 11.0 | 0.00 | 0.00 | 0.00 | 62 | 1017.9 |
| 20260902070803 | 88 | 295 | 4.0 | 11.0 | 0.00 | 0.00 | 0.00 | 62 | 1017.9 |
| 20260902070703 | 88 | 295 | 4.0 | 11.0 | 0.00 | 0.00 | 0.00 | 62 | 1017.9 |
| 20260902070603 | 88 | 296 | 4.0 | 11.0 | 0.00 | 0.00 | 0.00 | 62 | 1018.0 |
| 20260902070504 | 88 | 296 | 4.0 | 11.0 | 0.00 | 0.00 | 0.00 | 62 | 1018.0 |
| 20260902070403 | 88 | 296 | 4.0 | 13.0 | 0.00 | 0.00 | 0.00 | 62 | 1018.1 |
| 20260902070303 | 88 | 298 | 4.0 | 13.0 | 0.00 | 0.00 | 0.00 | 63 | 1018.0 |
| 20260902070203 | 88 | 301 | 4.0 | 13.0 | 0.00 | 0.00 | 0.00 | 63 | 1017.9 |
| 20260902070103 | 87 | 300 | 4.0 | 13.0 | 0.00 | 0.00 | 0.00 | 63 | 1017.8 |
| 20260902070005 | 87 | 300 | 4.0 | 13.0 | 0.00 | 0.00 | 0.00 | 63 | 1017.8 |
| 20260902065903 | 87 | 299 | 4.0 | 13.0 | 0.00 | 0.00 | 0.00 | 63 | 1017.8 |
| 20260902065803 | 87 | 298 | 4.0 | 13.0 | 0.00 | 0.00 | 0.00 | 63 | 1017.8 |
| 20260902065703 | 87 | 299 | 5.0 | 13.0 | 0.00 | 0.00 | 0.00 | 63 | 1017.8 |
| 20260902065603 | 87 | 298 | 5.0 | 13.0 | 0.00 | 0.00 | 0.00 | 63 | 1017.8 |
| 20260902065503 | 87 | 299 | 5.0 | 13.0 | 0.00 | 0.00 | 0.00 | 63 | 1017.9 |
| 20260902065403 | 87 | 301 | 4.0 | 11.0 | 0.00 | 0.00 | 0.00 | 63 | 1017.9 |
| 20260902065306 | 87 | 301 | 4.0 | 11.0 | 0.00 | 0.00 | 0.00 | 64 | 1017.9 |
| 20260902065203 | 87 | 299 | 5.0 | 11.0 | 0.00 | 0.00 | 0.00 | 64 | 1017.8 |
| 20260902065103 | 87 | 298 | 5.0 | 11.0 | 0.00 | 0.00 | 0.00 | 64 | 1017.9 |
| 20260902065003 | 87 | 298 | 5.0 | 11.0 | 0.00 | 0.00 | 0.00 | 64 | 1017.9 |
| 20260902064903 | 87 | 297 | 5.0 | 11.0 | 0.00 | 0.00 | 0.00 | 64 | 1017.9 |
| 20260902064803 | 87 | 299 | 5.0 | 11.0 | 0.00 | 0.00 | 0.00 | 64 | 1018.0 |
| 20260902064703 | 87 | 299 | 5.0 | 11.0 | 0.00 | 0.00 | 0.00 | 64 | 1017.9 |
| 20260902064603 | 87 | 298 | 5.0 | 11.0 | 0.00 | 0.00 | 0.00 | 64 | 1017.8 |
| 20260902064503 | 87 | 298 | 6.0 | 12.0 | 0.00 | 0.00 | 0.00 | 64 | 1017.9 |
| 20260902064403 | 87 | 297 | 6.0 | 12.0 | 0.00 | 0.00 | 0.00 | 64 | 1018.0 |
| 20260902064303 | 87 | 296 | 6.0 | 12.0 | 0.00 | 0.00 | 0.00 | 64 | 1017.8 |
| 20260902064203 | 87 | 298 | 5.0 | 12.0 | 0.00 | 0.00 | 0.00 | 64 | 1018.0 |
| 20260902064103 | 87 | 300 | 5.0 | 12.0 | 0.00 | 0.00 | 0.00 | 64 | 1018.0 |
| 20260902064003 | 87 | 302 | 5.0 | 12.0 | 0.00 | 0.00 | 0.00 | 64 | 1017.8 |
| 20260902063903 | 87 | 302 | 4.0 | 12.0 | 0.00 | 0.00 | 0.00 | 64 | 1017.9 |
| 20260902063803 | 87 | 300 | 4.0 | 12.0 | 0.00 | 0.00 | 0.00 | 64 | 1017.6 |
| 20260902063703 | 87 | 301 | 4.0 | 12.0 | 0.00 | 0.00 | 0.00 | 64 | 1017.7 |
| 20260902063603 | 87 | 300 | 4.0 | 12.0 | 0.00 | 0.00 | 0.00 | 64 | 1017.7 |
| 20260902063503 | 87 | 300 | 4.0 | 12.0 | 0.00 | 0.00 | 0.00 | 64 | 1017.6 |
| 20260902063403 | 87 | 300 | 4.0 | 12.0 | 0.00 | 0.00 | 0.00 | 64 | 1017.6 |
| 20260902063303 | 87 | 301 | 4.0 | 12.0 | 0.00 | 0.00 | 0.00 | 65 | 1017.6 |
| 20260902063203 | 87 | 298 | 4.0 | 12.0 | 0.00 | 0.00 | 0.00 | 65 | 1017.6 |
| 20260902063103 | 86 | 298 | 4.0 | 12.0 | 0.00 | 0.00 | 0.00 | 65 | 1017.6 |
| 20260902063003 | 86 | 297 | 4.0 | 12.0 | 0.00 | 0.00 | 0.00 | 65 | 1017.6 |
| 20260902062903 | 86 | 298 | 5.0 | 12.0 | 0.00 | 0.00 | 0.00 | 65 | 1017.6 |
| 20260902062803 | 86 | 299 | 5.0 | 12.0 | 0.00 | 0.00 | 0.00 | 65 | 1017.6 |
| 20260902062703 | 86 | 299 | 5.0 | 12.0 | 0.00 | 0.00 | 0.00 | 65 | 1017.6 |
| 20260902062603 | 86 | 300 | 5.0 | 12.0 | 0.00 | 0.00 | 0.00 | 65 | 1017.6 |
| 20260902062503 | 86 | 299 | 5.0 | 12.0 | 0.00 | 0.00 | 0.00 | 65 | 1017.6 |
| 20260902062403 | 86 | 299 | 4.0 | 12.0 | 0.00 | 0.00 | 0.00 | 65 | 1017.6 |
| 20260902062305 | 86 | 299 | 4.0 | 12.0 | 0.00 | 0.00 | 0.00 | 65 | 1017.7 |
| 20260902062203 | 86 | 299 | 5.0 | 12.0 | 0.00 | 0.00 | 0.00 | 65 | 1017.6 |
| 20260902062103 | 86 | 298 | 5.0 | 14.0 | 0.00 | 0.00 | 0.00 | 65 | 1017.7 |
| 20260902062003 | 86 | 298 | 4.0 | 14.0 | 0.00 | 0.00 | 0.00 | 65 | 1017.7 |
| 20260902061903 | 86 | 297 | 4.0 | 14.0 | 0.00 | 0.00 | 0.00 | 65 | 1017.7 |
| 20260902061803 | 86 | 297 | 4.0 | 14.0 | 0.00 | 0.00 | 0.00 | 65 | 1017.7 |
| 20260902061703 | 86 | 297 | 4.0 | 14.0 | 0.00 | 0.00 | 0.00 | 66 | 1017.7 |
| 20260902061603 | 86 | 297 | 4.0 | 14.0 | 0.00 | 0.00 | 0.00 | 66 | 1017.6 |
| 20260902061503 | 86 | 299 | 4.0 | 14.0 | 0.00 | 0.00 | 0.00 | 66 | 1017.6 |
| 20260902061403 | 86 | 299 | 4.0 | 14.0 | 0.00 | 0.00 | 0.00 | 66 | 1017.6 |
| 20260902061303 | 86 | 298 | 4.0 | 14.0 | 0.00 | 0.00 | 0.00 | 66 | 1017.7 |
| 20260902061203 | 86 | 300 | 4.0 | 14.0 | 0.00 | 0.00 | 0.00 | 67 | 1017.7 |
| 20260902061103 | 86 | 300 | 4.0 | 9.0 | 0.00 | 0.00 | 0.00 | 67 | 1017.6 |
| 20260902061003 | 86 | 301 | 4.0 | 9.0 | 0.00 | 0.00 | 0.00 | 67 | 1017.6 |
| 20260902060903 | 85 | 301 | 4.0 | 9.0 | 0.00 | 0.00 | 0.00 | 67 | 1017.6 |
| 20260902060803 | 85 | 299 | 4.0 | 9.0 | 0.00 | 0.00 | 0.00 | 67 | 1017.6 |
| 20260902060703 | 85 | 300 | 4.0 | 9.0 | 0.00 | 0.00 | 0.00 | 67 | 1017.7 |